KC5DAQ-22 Weather Reports


Display with metric or nautical units.
time (UTC)temp
F
wind
direction
speed
MPH
gust
MPH
rain 1hr
in
rain 24hr
in
rain mn
in
humidity
%
barometer
mb
20260905052902 82 175 2.0 4.0 0.00 0.06 0.00 89 1011.4
20260905052802 82 180 1.0 4.0 0.00 0.06 0.00 89 1011.4
20260905052704 82 182 2.0 4.0 0.00 0.06 0.00 89 1011.3
20260905052602 82 171 2.0 4.0 0.00 0.06 0.00 89 1011.4
20260905052502 82 195 2.0 4.0 0.00 0.06 0.00 89 1011.3
20260905052402 82 190 2.0 4.0 0.00 0.06 0.00 89 1011.4
20260905052306 82 178 3.0 4.0 0.00 0.06 0.00 89 1011.4
20260905052202 82 189 2.0 4.0 0.00 0.06 0.00 89 1011.4
20260905052102 82 179 2.0 4.0 0.00 0.06 0.00 89 1011.4
20260905052004 82 189 2.0 4.0 0.00 0.06 0.00 89 1011.5
20260905051902 82 183 2.0 4.0 0.00 0.06 0.00 89 1011.4
20260905051802 82 179 0.0 3.0 0.00 0.06 0.00 89 1011.4
20260905051702 82 188 0.0 5.0 0.00 0.06 0.00 89 1011.4
20260905051602 82 188 1.0 5.0 0.00 0.06 0.00 89 1011.4
20260905051502 82 195 2.0 5.0 0.00 0.06 0.00 89 1011.5
20260905051402 82 195 2.0 5.0 0.00 0.06 0.00 89 1011.5
20260905051303 82 195 1.0 5.0 0.00 0.06 0.00 89 1011.4
20260905051202 82 195 1.0 5.0 0.00 0.06 0.00 89 1011.4
20260905051102 82 195 1.0 5.0 0.00 0.06 0.00 89 1011.4
20260905051003 82 193 1.0 5.0 0.00 0.06 0.00 89 1011.3
20260905050903 82 195 2.0 5.0 0.00 0.06 0.00 89 1011.4
20260905050802 82 195 3.0 5.0 0.00 0.06 0.00 89 1011.4
20260905050702 82 193 3.0 5.0 0.00 0.06 0.00 89 1011.4
20260905050603 82 195 3.0 5.0 0.00 0.06 0.00 89 1011.3
20260905050502 82 204 3.0 4.0 0.00 0.06 0.00 89 1011.4
20260905050402 82 206 2.0 5.0 0.00 0.06 0.00 89 1011.3
20260905050303 82 199 1.0 5.0 0.00 0.06 0.00 88 1011.4
20260905050202 82 199 1.0 5.0 0.00 0.06 0.00 88 1011.3
20260905050003 82 185 1.0 5.0 0.00 0.06 0.00 88 1011.3
20260905045903 82 185 1.0 5.0 0.00 0.06 0.06 88 1011.3
20260905045802 82 182 1.0 5.0 0.00 0.06 0.06 88 1011.3
20260905045702 82 202 1.0 5.0 0.00 0.06 0.06 88 1011.3
20260905045604 82 202 2.0 5.0 0.00 0.06 0.06 88 1011.2
20260905045502 82 203 3.0 5.0 0.00 0.06 0.06 88 1011.2
20260905045403 82 180 3.0 5.0 0.00 0.06 0.06 88 1011.3
20260905045305 82 188 3.0 5.0 0.00 0.06 0.06 88 1011.3
20260905045202 82 193 3.0 5.0 0.00 0.06 0.06 88 1011.3
20260905045102 82 149 3.0 5.0 0.00 0.06 0.06 88 1011.2
20260905044959 82 200 2.0 5.0 0.00 0.06 0.06 88 1011.2
20260905044858 82 192 3.0 5.0 0.00 0.06 0.06 88 1011.2
20260905044756 82 182 2.0 5.0 0.00 0.06 0.06 88 1011.3
20260905044655 82 169 2.0 5.0 0.00 0.06 0.06 88 1011.1
20260905044554 82 188 2.0 5.0 0.00 0.06 0.06 88 1011.2
20260905044452 82 123 2.0 5.0 0.00 0.06 0.06 88 1011.3
20260905044350 82 180 2.0 6.0 0.00 0.06 0.06 88 1011.2
20260905044248 83 193 0.0 6.0 0.00 0.06 0.06 88 1011.2
20260905044147 83 216 2.0 6.0 0.00 0.06 0.06 88 1011.2
20260905044046 83 168 2.0 6.0 0.00 0.06 0.06 88 1011.3
20260905043943 83 179 2.0 6.0 0.00 0.06 0.06 88 1011.2
20260905043842 83 165 2.0 6.0 0.00 0.06 0.06 88 1011.3
20260905043737 82 168 2.0 6.0 0.00 0.06 0.06 88 1011.3
20260905043637 82 157 3.0 6.0 0.00 0.06 0.06 88 1011.2
20260905043535 82 116 2.0 6.0 0.00 0.06 0.06 88 1011.3
20260905043433 82 142 2.0 6.0 0.00 0.06 0.06 88 1011.3
20260905043330 82 141 2.0 6.0 0.00 0.06 0.06 88 1011.3
20260905043232 83 135 4.0 6.0 0.00 0.06 0.06 88 1011.3
20260905043132 83 176 3.0 6.0 0.00 0.06 0.06 88 1011.3
20260905043031 83 149 2.0 6.0 0.00 0.06 0.06 88 1011.4
20260905042931 83 161 2.0 6.0 0.00 0.06 0.06 88 1011.3
20260905042832 83 157 2.0 6.0 0.00 0.06 0.06 87 1011.4
20260905042731 83 165 2.0 6.0 0.00 0.06 0.06 87 1011.3
20260905042631 83 121 2.0 6.0 0.00 0.06 0.06 87 1011.4
20260905042531 83 180 3.0 6.0 0.00 0.06 0.06 87 1011.3
20260905042431 83 152 3.0 6.0 0.00 0.06 0.06 88 1011.2
20260905042331 83 193 2.0 5.0 0.00 0.06 0.06 87 1011.4
20260905042231 83 171 2.0 5.0 0.00 0.06 0.06 87 1011.3
20260905042132 83 178 2.0 5.0 0.00 0.06 0.06 87 1011.4
20260905042031 83 172 2.0 5.0 0.00 0.06 0.06 87 1011.4
20260905041931 83 196 2.0 5.0 0.00 0.06 0.06 87 1011.4
20260905041831 83 171 2.0 5.0 0.00 0.06 0.06 87 1011.4
20260905041732 83 149 2.0 5.0 0.00 0.06 0.06 87 1011.4
20260905041631 83 193 2.0 4.0 0.00 0.06 0.06 87 1011.5
20260905041531 83 147 2.0 4.0 0.00 0.06 0.06 87 1011.5
20260905041431 83 128 2.0 4.0 0.00 0.06 0.06 87 1011.5
20260905041331 82 128 1.0 4.0 0.00 0.06 0.06 87 1011.5
20260905041231 83 138 2.0 6.0 0.00 0.06 0.06 87 1011.5
20260905041132 83 137 2.0 6.0 0.00 0.06 0.06 87 1011.5
20260905041031 83 166 2.0 6.0 0.00 0.06 0.06 87 1011.5
20260905040932 83 157 2.0 6.0 0.00 0.06 0.06 87 1011.5
20260905040831 83 172 2.0 6.0 0.00 0.06 0.06 87 1011.5
20260905040732 83 142 2.0 6.0 0.00 0.06 0.06 87 1011.5
20260905040631 83 175 2.0 6.0 0.00 0.06 0.06 87 1011.5
20260905040531 83 121 2.0 6.0 0.00 0.06 0.06 87 1011.6
20260905040432 83 161 2.0 6.0 0.00 0.06 0.06 87 1011.5
20260905040332 83 149 2.0 6.0 0.00 0.06 0.06 87 1011.5
20260905040232 83 140 1.0 5.0 0.00 0.06 0.06 87 1011.5
20260905040131 83 131 1.0 5.0 0.00 0.06 0.06 87 1011.6
20260905040033 83 159 2.0 5.0 0.00 0.06 0.06 87 1011.5
20260905035933 83 147 1.0 5.0 0.00 0.06 0.06 87 1011.6
20260905035832 83 145 2.0 5.0 0.00 0.06 0.06 87 1011.6
20260905035733 83 188 2.0 5.0 0.00 0.06 0.06 87 1011.5
20260905035631 83 149 1.0 5.0 0.00 0.06 0.06 87 1011.6
20260905035531 83 164 2.0 5.0 0.00 0.06 0.06 87 1011.6
20260905035432 83 206 3.0 5.0 0.00 0.06 0.06 87 1011.6
20260905035332 83 171 2.0 4.0 0.00 0.06 0.06 87 1011.7
20260905035233 83 189 3.0 4.0 0.00 0.06 0.06 87 1011.6
20260905035133 83 157 2.0 4.0 0.00 0.06 0.06 87 1011.7
20260905035030 83 121 2.0 4.0 0.00 0.06 0.06 87 1011.7
20260905034931 83 159 2.0 4.0 0.00 0.06 0.06 87 1011.7
20260905034832 83 134 2.0 4.0 0.00 0.06 0.06 87 1011.7
20260905034732 83 141 2.0 4.0 0.00 0.06 0.06 87 1011.7
20260905034632 83 130 2.0 4.0 0.00 0.06 0.06 87 1011.7
20260905034532 83 145 2.0 4.0 0.00 0.06 0.06 87 1011.6
20260905034431 83 137 2.0 4.0 0.00 0.06 0.06 87 1011.6
20260905034333 83 140 2.0 4.0 0.00 0.06 0.06 87 1011.5
20260905034232 83 169 2.0 4.0 0.00 0.06 0.06 87 1011.6
20260905034131 83 166 1.0 4.0 0.00 0.06 0.06 87 1011.5
20260905034032 83 135 1.0 4.0 0.00 0.06 0.06 87 1011.5
20260905033931 83 134 1.0 4.0 0.00 0.06 0.06 87 1011.5
20260905033829 83 111 0.0 3.0 0.00 0.06 0.06 87 1011.6
20260905033728 83 111 0.0 3.0 0.00 0.06 0.06 87 1011.6
20260905033628 83 111 1.0 3.0 0.00 0.06 0.06 87 1011.6
20260905033523 83 111 2.0 3.0 0.00 0.06 0.06 87 1011.6
20260905033423 83 111 1.0 3.0 0.00 0.06 0.06 87 1011.6
20260905033322 83 111 1.0 3.0 0.00 0.06 0.06 87 1011.6
20260905033221 83 111 0.0 3.0 0.00 0.06 0.06 87 1011.6
20260905033115 83 111 1.0 3.0 0.00 0.06 0.06 87 1011.6
20260905033014 83 111 1.0 3.0 0.00 0.06 0.06 87 1011.6
20260905032913 83 111 1.0 3.0 0.00 0.06 0.06 87 1011.6
20260905032811 83 111 1.0 3.0 0.00 0.06 0.06 87 1011.6
20260905032709 83 111 2.0 3.0 0.00 0.06 0.06 87 1011.7
20260905032609 83 110 1.0 3.0 0.00 0.06 0.06 87 1011.7
20260905032507 83 94 0.0 3.0 0.00 0.06 0.06 87 1011.7
20260905032405 83 94 1.0 3.0 0.00 0.06 0.06 87 1011.7
20260905032306 83 94 1.0 3.0 0.00 0.06 0.06 87 1011.7
20260905032206 83 94 1.0 3.0 0.00 0.06 0.06 87 1011.8
20260905032104 83 92 1.0 3.0 0.00 0.06 0.06 87 1011.8
20260905032004 83 92 2.0 3.0 0.00 0.06 0.06 87 1011.8
20260905031904 83 89 1.0 2.0 0.00 0.06 0.06 87 1011.7
20260905031804 83 89 1.0 2.0 0.00 0.06 0.06 87 1011.7
20260905031704 83 89 1.0 2.0 0.00 0.06 0.06 87 1011.7
20260905031605 83 89 1.0 2.0 0.00 0.06 0.06 87 1011.8
20260905031506 82 89 1.0 2.0 0.00 0.06 0.06 87 1011.7
20260905031404 82 89 0.0 1.0 0.00 0.06 0.06 87 1011.6
20260905031304 82 87 0.0 1.0 0.00 0.06 0.06 87 1011.6
20260905031205 82 87 0.0 1.0 0.00 0.06 0.06 87 1011.6
20260905031104 82 87 0.0 1.0 0.00 0.06 0.06 87 1011.7
20260905031005 82 87 0.0 1.0 0.00 0.06 0.06 87 1011.7
20260905030904 82 87 0.0 1.0 0.00 0.06 0.06 87 1011.6
20260905030804 82 87 0.0 1.0 0.00 0.06 0.06 87 1011.7
20260905030704 82 87 0.0 1.0 0.00 0.06 0.06 87 1011.7
20260905030604 83 87 0.0 1.0 0.00 0.06 0.06 87 1011.7
20260905030504 83 87 0.0 2.0 0.00 0.06 0.06 87 1011.7
20260905030404 83 87 0.0 2.0 0.00 0.06 0.06 87 1011.7
20260905030304 83 87 0.0 2.0 0.00 0.06 0.06 86 1011.6
20260905030204 83 35 0.0 2.0 0.00 0.06 0.06 86 1011.7
20260905030104 83 35 0.0 2.0 0.00 0.06 0.06 86 1011.6
20260905030005 83 35 0.0 2.0 0.00 0.06 0.06 86 1011.5
20260905025904 83 35 0.0 2.0 0.00 0.06 0.06 86 1011.6
20260905025806 83 35 0.0 2.0 0.00 0.06 0.06 86 1011.6
20260905025704 83 35 0.0 2.0 0.01 0.06 0.06 86 1011.6
20260905025604 83 35 1.0 2.0 0.01 0.06 0.06 85 1011.6
20260905025504 83 35 0.0 2.0 0.01 0.06 0.06 86 1011.6
20260905025406 83 35 0.0 2.0 0.01 0.06 0.06 85 1011.5
20260905025306 83 35 0.0 2.0 0.01 0.06 0.06 86 1011.6
20260905025204 83 35 1.0 2.0 0.01 0.06 0.06 85 1011.6
20260905025105 83 35 1.0 2.0 0.01 0.06 0.06 85 1011.6
20260905025006 83 35 1.0 2.0 0.01 0.06 0.06 85 1011.6
20260905024904 83 35 0.0 2.0 0.01 0.06 0.06 85 1011.6
20260905024806 83 37 0.0 3.0 0.01 0.06 0.06 85 1011.6
20260905024704 84 38 0.0 3.0 0.01 0.06 0.06 84 1011.6
20260905024603 84 39 0.0 4.0 0.01 0.06 0.06 84 1011.5
20260905024506 84 41 0.0 4.0 0.01 0.06 0.06 83 1011.5
20260905024404 84 39 0.0 4.0 0.01 0.06 0.06 83 1011.4
20260905024304 84 39 0.0 4.0 0.01 0.06 0.06 83 1011.4
20260905024204 84 41 1.0 4.0 0.01 0.06 0.06 83 1011.4
20260905024104 84 41 1.0 4.0 0.01 0.06 0.06 83 1011.4
20260905024004 84 41 1.0 4.0 0.01 0.06 0.06 83 1011.4
20260905023903 84 41 2.0 4.0 0.01 0.06 0.06 83 1011.4
20260905023804 84 41 2.0 4.0 0.01 0.06 0.06 83 1011.4
20260905023704 84 39 3.0 4.0 0.01 0.06 0.06 83 1011.4
20260905023604 84 41 2.0 4.0 0.01 0.06 0.06 83 1011.3
20260905023505 84 41 2.0 4.0 0.01 0.06 0.06 83 1011.4
20260905023405 84 41 2.0 4.0 0.01 0.06 0.06 83 1011.4
20260905023304 84 41 2.0 4.0 0.01 0.06 0.06 83 1011.3
20260905023203 84 41 2.0 4.0 0.01 0.06 0.06 83 1011.3
20260905023103 84 42 2.0 4.0 0.01 0.06 0.06 83 1011.3
20260905023005 84 42 1.0 4.0 0.01 0.06 0.06 83 1011.3
20260905022904 84 42 0.0 4.0 0.01 0.06 0.06 82 1011.3
20260905022803 84 42 0.0 4.0 0.01 0.06 0.06 82 1011.3
20260905022705 84 42 0.0 4.0 0.01 0.06 0.06 82 1011.3
20260905022603 84 44 2.0 4.0 0.01 0.06 0.06 82 1011.3
20260905022504 84 42 2.0 4.0 0.01 0.06 0.06 82 1011.3
20260905022403 85 42 3.0 4.0 0.01 0.06 0.06 82 1011.3
20260905022306 85 44 3.0 4.0 0.01 0.06 0.06 82 1011.3
20260905022204 85 48 2.0 4.0 0.01 0.06 0.06 82 1011.2
20260905022103 85 39 3.0 4.0 0.01 0.06 0.06 81 1011.2
20260905022004 85 68 3.0 4.0 0.01 0.06 0.06 81 1011.2
20260905021904 85 51 3.0 5.0 0.01 0.06 0.06 81 1011.2
20260905021804 85 51 2.0 5.0 0.01 0.06 0.06 81 1011.2
20260905021703 85 52 2.0 5.0 0.01 0.06 0.06 81 1011.2
20260905021603 85 51 2.0 5.0 0.01 0.06 0.06 81 1011.2
20260905021504 85 52 2.0 5.0 0.01 0.06 0.06 81 1011.3
20260905021403 85 52 2.0 5.0 0.01 0.06 0.06 81 1011.2
20260905021304 85 52 2.0 5.0 0.01 0.06 0.06 81 1011.3
20260905021204 85 52 3.0 5.0 0.01 0.06 0.06 81 1011.2
20260905021103 85 51 3.0 6.0 0.01 0.06 0.06 81 1011.2
20260905021004 85 51 3.0 6.0 0.01 0.06 0.06 81 1011.2
20260905020904 85 56 2.0 6.0 0.01 0.06 0.06 81 1011.2
20260905020803 85 59 3.0 6.0 0.01 0.06 0.06 80 1011.2
20260905020703 85 59 3.0 6.0 0.01 0.06 0.06 80 1011.2
20260905020603 85 59 3.0 6.0 0.01 0.06 0.06 80 1011.2
20260905020504 85 59 3.0 6.0 0.01 0.06 0.06 80 1011.2
20260905020402 85 59 3.0 6.0 0.01 0.06 0.06 80 1011.1
20260905020302 85 59 4.0 6.0 0.01 0.06 0.06 80 1011.0
20260905020204 85 61 4.0 6.0 0.01 0.06 0.06 80 1011.1
20260905020104 85 59 3.0 6.0 0.01 0.06 0.06 80 1011.0
20260905020002 85 59 4.0 6.0 0.01 0.05 0.06 80 1011.0
20260905015903 85 62 5.0 6.0 0.01 0.05 0.06 80 1011.0
20260905015803 85 58 4.0 5.0 0.01 0.05 0.05 80 1011.1
20260905015703 85 61 4.0 5.0 0.00 0.05 0.05 80 1011.0
20260905015603 85 63 3.0 5.0 0.00 0.05 0.05 80 1011.0
20260905015504 85 52 3.0 5.0 0.00 0.05 0.05 80 1011.0
20260905015402 85 49 3.0 5.0 0.00 0.05 0.05 80 1010.9
20260905015306 85 55 3.0 5.0 0.00 0.05 0.05 80 1010.9
20260905015203 85 52 4.0 5.0 0.00 0.05 0.05 80 1010.9
20260905015102 85 56 3.0 5.0 0.00 0.05 0.05 80 1010.9
20260905015004 85 61 3.0 5.0 0.00 0.05 0.05 80 1010.9
20260905014902 85 61 4.0 5.0 0.00 0.05 0.05 80 1010.9
20260905014803 85 58 4.0 5.0 0.00 0.05 0.05 80 1010.9
20260905014702 85 62 4.0 5.0 0.00 0.05 0.05 80 1010.9
20260905014601 85 56 3.0 5.0 0.00 0.05 0.05 80 1010.8
20260905014500 85 55 3.0 5.0 0.00 0.05 0.05 80 1010.9
20260905014358 85 55 3.0 5.0 0.00 0.05 0.05 80 1010.9
20260905014258 85 58 3.0 5.0 0.00 0.05 0.05 80 1010.9
20260905014155 85 56 3.0 5.0 0.00 0.05 0.05 80 1010.9
20260905014056 85 59 4.0 5.0 0.00 0.05 0.05 80 1010.9
20260905013952 85 61 4.0 5.0 0.00 0.05 0.05 80 1010.9
20260905013852 85 61 4.0 5.0 0.00 0.05 0.05 80 1010.8
20260905013749 85 63 4.0 5.0 0.00 0.05 0.05 80 1010.8
20260905013648 85 61 3.0 5.0 0.00 0.05 0.05 80 1010.8
20260905013546 85 61 2.0 4.0 0.00 0.05 0.05 80 1010.8
20260905013446 85 59 3.0 4.0 0.00 0.05 0.05 80 1010.8
20260905013344 85 58 3.0 4.0 0.00 0.05 0.05 80 1010.8
20260905013243 85 56 3.0 4.0 0.00 0.05 0.05 80 1010.8
20260905013140 85 54 2.0 4.0 0.00 0.05 0.05 80 1010.8
20260905013039 85 52 2.0 4.0 0.00 0.05 0.05 80 1010.7
20260905012937 85 54 1.0 4.0 0.00 0.05 0.05 80 1010.7
20260905012836 85 54 0.0 4.0 0.00 0.05 0.05 80 1010.8
20260905012734 85 54 0.0 4.0 0.00 0.05 0.05 80 1010.8
20260905012633 85 52 0.0 4.0 0.00 0.05 0.05 80 1010.7
20260905012531 85 51 2.0 4.0 0.00 0.05 0.05 80 1010.7
20260905012431 85 49 1.0 4.0 0.00 0.05 0.05 80 1010.7
20260905012332 85 49 0.0 3.0 0.00 0.05 0.05 79 1010.8
20260905012229 85 49 0.0 3.0 0.00 0.05 0.05 79 1010.7
20260905012129 85 49 1.0 3.0 0.00 0.05 0.05 79 1010.7
20260905012025 85 48 2.0 3.0 0.00 0.05 0.05 79 1010.7
20260905011921 85 82 1.0 3.0 0.00 0.05 0.05 79 1010.7
20260905011819 85 82 1.0 4.0 0.00 0.05 0.05 79 1010.6
20260905011717 86 79 1.0 4.0 0.00 0.05 0.05 79 1010.7
20260905011616 86 79 1.0 4.0 0.00 0.05 0.05 79 1010.6
20260905011516 86 79 1.0 4.0 0.00 0.05 0.05 79 1010.7
20260905011412 86 79 1.0 4.0 0.00 0.05 0.05 79 1010.6
20260905011312 86 79 2.0 4.0 0.00 0.05 0.05 79 1010.5
20260905011210 86 79 2.0 4.0 0.00 0.05 0.05 79 1010.5
20260905011109 86 79 2.0 4.0 0.00 0.05 0.05 78 1010.6
20260905011004 86 79 2.0 4.0 0.00 0.05 0.05 78 1010.5
20260905010902 86 73 1.0 4.0 0.00 0.05 0.05 78 1010.5
20260905010801 86 75 1.0 4.0 0.00 0.05 0.05 78 1010.5
20260905010702 86 76 2.0 4.0 0.00 0.05 0.05 78 1010.5
20260905010602 86 75 2.0 6.0 0.00 0.05 0.05 78 1010.4
20260905010502 86 72 3.0 6.0 0.00 0.05 0.05 78 1010.4
20260905010403 86 85 2.0 6.0 0.00 0.05 0.05 78 1010.4
20260905010303 86 85 3.0 6.0 0.00 0.05 0.05 78 1010.4
20260905010202 86 82 3.0 6.0 0.00 0.05 0.05 78 1010.4
20260905010004 86 92 3.0 6.0 0.00 0.05 0.05 78 1010.4
20260905005903 86 92 3.0 6.0 0.00 0.05 0.05 78 1010.4
20260905005802 86 92 4.0 6.0 0.00 0.05 0.05 78 1010.4
20260905005703 86 103 4.0 6.0 0.00 0.05 0.05 78 1010.4
20260905005602 86 106 4.0 5.0 0.00 0.05 0.05 78 1010.3
20260905005501 86 93 4.0 5.0 0.00 0.05 0.05 78 1010.4
20260905005401 86 90 4.0 5.0 0.00 0.05 0.05 78 1010.4
20260905005306 86 97 4.0 5.0 0.00 0.05 0.05 78 1010.4
20260905005201 86 103 4.0 5.0 0.00 0.05 0.05 78 1010.4
20260905005101 86 107 4.0 5.0 0.00 0.05 0.05 78 1010.4
20260905005003 86 106 4.0 5.0 0.00 0.05 0.05 78 1010.4
20260905004903 86 100 2.0 5.0 0.00 0.05 0.05 78 1010.4
20260905004802 86 100 2.0 5.0 0.00 0.05 0.05 78 1010.4
20260905004703 86 100 2.0 5.0 0.00 0.05 0.05 78 1010.4
20260905004602 86 100 2.0 5.0 0.00 0.05 0.05 78 1010.5
20260905004501 86 90 2.0 4.0 0.00 0.05 0.05 79 1010.5
20260905004401 86 133 2.0 4.0 0.00 0.05 0.05 79 1010.5
20260905004302 86 173 2.0 5.0 0.00 0.05 0.05 79 1010.5
20260905004201 86 80 2.0 5.0 0.00 0.05 0.05 78 1010.5
20260905004102 86 83 2.0 5.0 0.00 0.05 0.05 78 1010.4
20260905004001 86 83 2.0 5.0 0.00 0.05 0.05 78 1010.4
20260905003903 87 137 2.0 5.0 0.00 0.05 0.05 78 1010.4
20260905003801 87 124 2.0 5.0 0.00 0.05 0.05 78 1010.3
20260905003701 87 97 2.0 6.0 0.00 0.05 0.05 78 1010.4
20260905003602 87 79 2.0 7.0 0.00 0.05 0.05 78 1010.4
20260905003502 87 78 3.0 7.0 0.00 0.05 0.05 78 1010.3
20260905003403 87 78 3.0 7.0 0.00 0.05 0.05 78 1010.3
20260905003301 87 68 3.0 7.0 0.00 0.05 0.05 79 1010.3
20260905003203 87 114 3.0 7.0 0.00 0.05 0.05 79 1010.3
20260905003100 87 109 3.0 7.0 0.00 0.05 0.05 79 1010.2
20260905003002 87 111 4.0 7.0 0.00 0.05 0.05 79 1010.2
20260905002900 86 109 4.0 7.0 0.00 0.05 0.05 79 1010.1
20260905002801 86 116 5.0 7.0 0.00 0.05 0.05 79 1010.0
20260905002701 86 109 5.0 7.0 0.00 0.05 0.05 80 1010.0
20260905002600 86 124 4.0 6.0 0.00 0.05 0.05 80 1010.0
20260905002502 86 97 4.0 6.0 0.00 0.05 0.05 81 1010.0
20260905002400 86 106 4.0 6.0 0.00 0.05 0.05 81 1009.9
20260905002259 86 90 3.0 5.0 0.00 0.05 0.05 82 1009.9
20260905002202 86 75 3.0 4.0 0.00 0.05 0.05 82 1009.9
20260905002101 86 45 3.0 4.0 0.00 0.05 0.05 82 1009.9
20260905002000 86 45 3.0 4.0 0.00 0.05 0.05 82 1009.9
20260905001901 86 45 3.0 4.0 0.00 0.05 0.05 82 1009.9
20260905001802 86 45 3.0 5.0 0.00 0.05 0.05 82 1009.9
20260905001700 86 44 3.0 5.0 0.00 0.05 0.05 82 1009.9
20260905001601 86 44 3.0 5.0 0.00 0.05 0.05 83 1009.9
20260905001502 86 42 3.0 5.0 0.00 0.05 0.05 83 1009.9
20260905001400 86 42 3.0 5.0 0.00 0.05 0.05 83 1009.9
20260905001300 86 42 2.0 5.0 0.00 0.05 0.05 83 1010.0
20260905001200 86 42 2.0 5.0 0.00 0.05 0.05 83 1010.0
20260905001101 86 42 3.0 5.0 0.00 0.05 0.05 83 1010.1
20260905001001 86 42 4.0 5.0 0.00 0.05 0.05 82 1010.0
20260905000901 86 41 4.0 5.0 0.00 0.05 0.05 82 1010.0
20260905000802 86 35 3.0 4.0 0.00 0.05 0.05 83 1010.0
20260905000701 86 24 3.0 4.0 0.00 0.05 0.05 83 1010.0
20260905000602 86 0 3.0 4.0 0.00 0.05 0.05 83 1010.0
20260905000500 86 0 2.0 3.0 0.00 0.05 0.05 83 1010.0
20260905000402 86 0 2.0 3.0 0.00 0.05 0.05 84 1010.1
20260905000303 86 0 2.0 3.0 0.00 0.05 0.05 84 1010.0
20260905000200 86 0 1.0 3.0 0.00 0.05 0.05 85 1010.1
20260905000001 86 0 2.0 3.0 0.00 0.05 0.05 85 1010.1
20260904235901 86 0 1.0 3.0 0.00 0.05 0.05 84 1010.1
20260904235802 86 0 1.0 3.0 0.00 0.05 0.05 84 1010.1
20260904235701 86 0 1.0 3.0 0.00 0.05 0.05 84 1010.1
20260904235559 86 0 2.0 3.0 0.00 0.05 0.05 84 1010.0
20260904235500 86 0 2.0 3.0 0.00 0.05 0.05 84 1010.1
20260904235401 86 0 2.0 3.0 0.00 0.05 0.05 84 1010.1
20260904235259 86 0 2.0 3.0 0.00 0.05 0.05 84 1010.1
20260904235201 86 0 2.0 3.0 0.00 0.05 0.05 84 1010.1
20260904235102 86 0 2.0 3.0 0.00 0.05 0.05 84 1010.0
20260904235000 86 0 2.0 3.0 0.00 0.05 0.05 84 1010.0
20260904234859 86 0 2.0 3.0 0.00 0.05 0.05 84 1010.0
20260904234800 86 0 2.0 3.0 0.00 0.05 0.05 84 1010.0
20260904234701 86 0 2.0 3.0 0.00 0.05 0.05 83 1009.9
20260904234601 86 0 2.0 3.0 0.00 0.05 0.05 83 1009.9
20260904234459 86 0 2.0 3.0 0.00 0.05 0.05 83 1009.9
20260904234400 87 0 2.0 3.0 0.00 0.05 0.05 82 1009.9
20260904234259 87 0 2.0 3.0 0.00 0.05 0.05 82 1010.0
20260904234159 87 0 2.0 3.0 0.00 0.05 0.05 82 1010.0
20260904234100 87 0 2.0 3.0 0.00 0.05 0.05 83 1010.0
20260904234001 87 0 2.0 3.0 0.00 0.05 0.05 82 1010.1
20260904233900 87 0 2.0 3.0 0.00 0.05 0.05 83 1010.1
20260904233800 87 0 2.0 3.0 0.00 0.05 0.05 83 1010.1
20260904233659 87 0 2.0 3.0 0.00 0.05 0.05 83 1010.1
20260904233600 87 0 2.0 3.0 0.00 0.05 0.05 82 1010.1
20260904233500 87 0 2.0 4.0 0.00 0.05 0.05 81 1010.2
20260904233400 87 0 2.0 4.0 0.00 0.05 0.05 81 1010.1
20260904233300 87 0 2.0 4.0 0.00 0.05 0.05 80 1010.1
20260904233200 87 0 2.0 4.0 0.00 0.05 0.05 80 1010.1
20260904233100 87 0 2.0 4.0 0.00 0.05 0.05 80 1010.2
20260904233000 87 0 2.0 4.0 0.00 0.05 0.05 81 1010.2
20260904232900 87 0 2.0 4.0 0.00 0.05 0.05 80 1010.1
20260904232800 87 0 2.0 4.0 0.00 0.05 0.05 80 1010.2
20260904232700 87 0 2.0 4.0 0.00 0.05 0.05 81 1010.2
20260904232559 87 0 3.0 4.0 0.00 0.05 0.05 81 1010.2
20260904232500 87 0 2.0 4.0 0.00 0.05 0.05 82 1010.2
20260904232400 87 0 2.0 4.0 0.00 0.05 0.05 81 1010.2
20260904232300 87 0 2.0 4.0 0.00 0.05 0.05 81 1010.3
20260904232159 87 358 2.0 4.0 0.00 0.05 0.05 81 1010.2
20260904232059 87 358 3.0 4.0 0.00 0.05 0.05 80 1010.2
20260904231959 87 357 3.0 4.0 0.00 0.05 0.05 80 1010.2
20260904231901 87 357 2.0 4.0 0.00 0.05 0.05 80 1010.3
20260904231800 87 355 2.0 4.0 0.00 0.05 0.05 81 1010.3
20260904231659 87 331 2.0 4.0 0.00 0.05 0.05 81 1010.3
20260904231601 87 330 2.0 4.0 0.00 0.05 0.05 81 1010.2
20260904231459 87 329 2.0 4.0 0.00 0.05 0.05 80 1010.2
20260904231400 87 329 2.0 5.0 0.00 0.05 0.05 80 1010.2
20260904231300 87 329 2.0 5.0 0.00 0.05 0.05 80 1010.2
20260904231202 87 324 2.0 5.0 0.00 0.05 0.05 80 1010.2
20260904231058 86 324 3.0 5.0 0.00 0.05 0.05 79 1010.2
20260904230959 86 324 2.0 5.0 0.00 0.05 0.05 80 1010.2
20260904230900 86 324 2.0 5.0 0.00 0.05 0.05 80 1010.2
20260904230759 86 324 3.0 5.0 0.00 0.05 0.05 81 1010.1
20260904230700 86 324 3.0 5.0 0.00 0.05 0.05 80 1010.1
20260904230601 86 323 4.0 5.0 0.00 0.05 0.05 80 1010.2
20260904230501 86 323 4.0 5.0 0.00 0.05 0.05 81 1010.1
20260904230359 87 330 3.0 5.0 0.00 0.05 0.05 82 1010.1
20260904230259 87 330 3.0 5.0 0.00 0.05 0.05 82 1010.1
20260904230159 87 330 3.0 5.0 0.00 0.05 0.05 82 1010.2
20260904230100 87 334 2.0 4.0 0.00 0.05 0.05 82 1010.2
20260904225958 86 334 2.0 4.0 0.00 0.05 0.00 82 1010.1
20260904225859 86 334 3.0 4.0 0.00 0.05 0.00 82 1010.2
20260904225800 86 334 3.0 4.0 0.00 0.05 0.00 82 1010.2
20260904225659 86 334 3.0 4.0 0.00 0.05 0.00 84 1010.2
20260904225600 86 334 2.0 4.0 0.00 0.05 0.00 84 1010.1
20260904225459 86 334 2.0 4.0 0.00 0.05 0.00 84 1010.2
20260904225359 86 334 2.0 4.0 0.00 0.05 0.00 84 1010.1
20260904225300 86 334 2.0 4.0 0.00 0.05 0.00 84 1010.1
20260904225158 86 334 2.0 3.0 0.00 0.05 0.00 84 1010.2
20260904225058 86 334 2.0 3.0 0.00 0.05 0.00 84 1010.1
20260904224959 86 334 2.0 3.0 0.00 0.05 0.00 84 1010.1
20260904224859 86 334 2.0 4.0 0.00 0.05 0.00 84 1010.1
20260904224759 86 334 2.0 4.0 0.00 0.05 0.00 83 1010.1
20260904224659 86 334 2.0 4.0 0.00 0.05 0.00 84 1010.1
20260904224600 86 334 2.0 4.0 0.00 0.05 0.00 84 1010.1
20260904224500 86 334 2.0 4.0 0.00 0.05 0.00 84 1010.1
20260904224358 86 334 2.0 4.0 0.00 0.05 0.00 84 1010.1
20260904224258 85 334 2.0 4.0 0.00 0.05 0.00 84 1010.1
20260904224158 85 334 2.0 4.0 0.00 0.05 0.00 84 1010.1
20260904224058 85 334 3.0 4.0 0.00 0.05 0.00 83 1010.2
20260904223959 85 334 2.0 4.0 0.01 0.05 0.00 83 1010.2
20260904223900 85 334 2.0 5.0 0.01 0.05 0.00 85 1010.2
20260904223800 85 334 2.0 5.0 0.03 0.05 0.00 85 1010.2
20260904223657 85 334 2.0 5.0 0.04 0.05 0.00 87 1010.1
20260904223559 84 331 2.0 5.0 0.05 0.05 0.00 86 1010.2
20260904223500 84 331 2.0 5.0 0.05 0.05 0.00 86 1010.2
20260904223359 84 331 2.0 5.0 0.05 0.05 0.00 86 1010.1
20260904223232 83 331 3.0 5.0 0.05 0.05 0.00 86 1010.1
20260904223125 83 331 3.0 6.0 0.05 0.05 0.00 87 1010.2
20260904223021 83 330 3.0 6.0 0.05 0.05 0.00 88 1010.1
20260904222918 83 330 2.0 6.0 0.05 0.05 0.00 88 1010.1
20260904222818 83 316 2.0 6.0 0.05 0.05 0.00 88 1010.2
20260904222715 83 316 3.0 6.0 0.05 0.05 0.00 89 1010.2
20260904222612 83 316 4.0 6.0 0.05 0.05 0.00 89 1010.2
20260904222510 82 316 3.0 6.0 0.05 0.05 0.00 89 1010.3
20260904222406 82 314 4.0 6.0 0.05 0.05 0.00 89 1010.2
20260904222306 82 314 5.0 6.0 0.05 0.05 0.00 89 1010.3
20260904222203 82 299 4.0 5.0 0.05 0.05 0.00 91 1010.3
20260904222104 82 334 3.0 5.0 0.05 0.05 0.00 91 1010.4
20260904222003 82 334 3.0 5.0 0.05 0.05 0.00 91 1010.3
20260904221904 82 341 2.0 5.0 0.05 0.05 0.00 91 1010.3
20260904221801 82 341 2.0 5.0 0.05 0.05 0.00 91 1010.3
20260904221703 82 341 2.0 5.0 0.05 0.05 0.00 91 1010.3
20260904221603 82 341 2.0 5.0 0.05 0.05 0.00 91 1010.3
20260904221503 82 341 2.0 5.0 0.05 0.05 0.00 90 1010.3
20260904221402 82 340 2.0 5.0 0.05 0.05 0.00 92 1010.3
20260904221304 82 340 3.0 5.0 0.05 0.05 0.00 91 1010.4
20260904221203 82 340 2.0 5.0 0.05 0.05 0.00 91 1010.4
20260904221102 82 340 2.0 5.0 0.05 0.05 0.00 91 1010.3
20260904221003 81 340 2.0 5.0 0.05 0.05 0.00 91 1010.4
20260904220904 81 338 3.0 7.0 0.05 0.05 0.00 91 1010.4
20260904220803 81 338 3.0 7.0 0.05 0.05 0.00 91 1010.4
20260904220704 81 337 3.0 7.0 0.05 0.05 0.00 90 1010.5
20260904220603 81 337 4.0 7.0 0.05 0.05 0.00 89 1010.5
20260904220502 81 321 4.0 7.0 0.05 0.05 0.00 90 1010.5
20260904220403 81 299 6.0 7.0 0.05 0.05 0.05 91 1010.6
20260904220304 81 299 6.0 7.0 0.05 0.05 0.05 91 1010.6
20260904220201 81 299 6.0 7.0 0.05 0.05 0.05 91 1010.5
20260904220058 81 299 6.0 7.0 0.05 0.05 0.05 91 1010.6
20260904215957 81 299 6.0 7.0 0.00 0.00 0.05 92 1010.5
20260904215858 81 303 5.0 6.0 0.00 0.00 0.05 92 1010.5
20260904215757 81 309 3.0 5.0 0.00 0.00 0.05 91 1010.6
20260904215658 81 323 2.0 4.0 0.00 0.00 0.05 91 1010.5
20260904215600 81 323 2.0 4.0 0.00 0.00 0.05 91 1010.5
20260904215458 81 323 0.0 4.0 0.00 0.00 0.05 91 1010.6
20260904215358 81 323 0.0 4.0 0.00 0.00 0.05 91 1010.6
20260904215259 81 323 0.0 4.0 0.00 0.00 0.05 92 1010.6
20260904215159 81 323 1.0 4.0 0.00 0.00 0.05 92 1010.6
20260904215057 81 323 2.0 4.0 0.00 0.00 0.05 91 1010.6
20260904214957 81 323 2.0 4.0 0.00 0.00 0.05 90 1010.5
20260904214857 81 320 2.0 4.0 0.00 0.00 0.05 90 1010.6
20260904214758 81 317 2.0 4.0 0.00 0.00 0.05 90 1010.6
20260904214659 81 317 1.0 4.0 0.00 0.00 0.05 89 1010.7
20260904214558 81 317 1.0 4.0 0.00 0.00 0.05 90 1010.8
20260904214457 81 317 2.0 4.0 0.00 0.00 0.05 90 1010.7
20260904214358 81 317 2.0 4.0 0.00 0.00 0.05 89 1010.7
20260904214256 81 317 2.0 4.0 0.00 0.00 0.05 89 1010.8
20260904214159 81 317 3.0 4.0 0.00 0.00 0.05 88 1010.8
20260904214057 81 317 4.0 4.0 0.00 0.00 0.04 88 1010.7
20260904213957 81 317 3.0 4.0 0.00 0.00 0.04 88 1010.7
20260904213859 81 317 2.0 3.0 0.00 0.00 0.02 87 1010.7
20260904213756 81 317 2.0 3.0 0.00 0.00 0.01 86 1010.7
20260904213657 82 317 2.0 3.0 0.00 0.00 0.00 86 1010.6
20260904213558 82 317 2.0 3.0 0.00 0.00 0.00 85 1010.6
20260904213457 82 317 2.0 3.0 0.00 0.00 0.00 85 1010.6
20260904213357 82 316 2.0 0.0 0.00 0.00 0.00 85 1010.6
20260904213257 0 0.0 0.0 0.00 0.00 0.00 1010.6
20260904212732 86 104 9.0 13.0 0.03 0.00 0.03 78 1011.0
20260904212632 86 104 9.0 13.0 0.03 0.00 0.03 78 1011.1
20260904212532 86 104 9.0 13.0 0.03 0.00 0.03 78 1011.1
20260904212432 86 104 9.0 13.0 0.03 0.00 0.03 78 1011.0
20260904212332 86 104 9.0 13.0 0.03 0.00 0.03 78 1010.9
20260904212232 87 89 10.0 13.0 0.01 0.00 0.01 78 1010.9
20260904212132 87 96 10.0 13.0 0.01 0.00 0.00 77 1010.7
20260904212031 87 83 9.0 15.0 0.00 0.00 0.00 77 1010.7
20260904211932 87 93 10.0 15.0 0.00 0.00 0.00 76 1010.6
20260904211831 88 102 10.0 15.0 0.00 0.00 0.00 76 1010.6
20260904211732 88 96 8.0 15.0 0.00 0.00 0.00 76 1010.6
20260904211631 88 63 8.0 15.0 0.00 0.00 0.00 75 1010.5
20260904211531 88 114 9.0 15.0 0.00 0.00 0.00 74 1010.6
20260904211432 89 117 8.0 15.0 0.00 0.00 0.00 74 1010.6
20260904211332 89 76 9.0 15.0 0.00 0.00 0.00 73 1010.6
20260904211231 89 99 11.0 15.0 0.00 0.00 0.00 73 1010.7
20260904211131 89 73 11.0 15.0 0.00 0.00 0.00 72 1010.7
20260904211031 89 114 9.0 13.0 0.00 0.00 0.00 72 1010.6
20260904210931 89 102 7.0 11.0 0.00 0.00 0.00 72 1010.7
20260904210831 89 121 5.0 11.0 0.00 0.00 0.00 72 1010.7
20260904210731 89 52 3.0 5.0 0.00 0.00 0.00 72 1010.6
20260904210631 89 0 2.0 4.0 0.00 0.00 0.00 72 1010.5
20260904210531 90 0 2.0 4.0 0.00 0.00 0.00 73 1010.5
20260904210433 90 0 2.0 5.0 0.00 0.00 0.00 72 1010.5
20260904210333 90 0 2.0 5.0 0.00 0.00 0.00 72 1010.4
20260904210231 90 0 3.0 5.0 0.00 0.00 0.00 72 1010.4
20260904210131 90 0 3.0 5.0 0.00 0.00 0.00 72 1010.5
20260904210033 90 0 3.0 5.0 0.00 0.00 0.00 72 1010.5
20260904205930 90 0 3.0 5.0 0.00 0.00 0.00 72 1010.6
20260904205830 90 0 3.0 5.0 0.00 0.00 0.00 72 1010.6
20260904205732 90 0 3.0 5.0 0.00 0.00 0.00 72 1010.6
20260904205633 90 8 3.0 5.0 0.00 0.00 0.00 72 1010.7
20260904205531 90 8 2.0 5.0 0.00 0.00 0.00 72 1010.8
20260904205431 90 0 2.0 4.0 0.00 0.00 0.00 71 1010.6
20260904205333 90 0 2.0 4.0 0.00 0.00 0.00 71 1010.7
20260904205231 90 0 2.0 4.0 0.00 0.00 0.00 70 1010.7
20260904205132 90 0 3.0 4.0 0.00 0.00 0.00 71 1010.7
20260904205032 90 0 3.0 4.0 0.00 0.00 0.00 71 1010.7
20260904204932 90 0 3.0 4.0 0.00 0.00 0.00 71 1010.7
20260904204831 90 0 3.0 4.0 0.00 0.00 0.00 71 1010.8
20260904204731 90 316 3.0 4.0 0.00 0.00 0.00 70 1010.8
20260904204632 90 316 2.0 4.0 0.00 0.00 0.00 70 1010.7
20260904204532 90 316 2.0 4.0 0.00 0.00 0.00 70 1010.7
20260904204431 90 316 3.0 4.0 0.00 0.00 0.00 71 1010.8
20260904204330 90 314 3.0 4.0 0.00 0.00 0.00 71 1010.9
20260904204227 90 314 2.0 4.0 0.00 0.00 0.00 71 1010.8
20260904204125 90 314 1.0 4.0 0.00 0.00 0.00 71 1010.9
20260904204025 90 314 1.0 4.0 0.00 0.00 0.00 71 1010.9
20260904203924 90 314 3.0 4.0 0.00 0.00 0.00 71 1010.8
20260904203824 91 314 3.0 4.0 0.00 0.00 0.00 71 1010.9
20260904203723 91 314 3.0 4.0 0.00 0.00 0.00 71 1010.9
20260904203622 91 345 2.0 4.0 0.00 0.00 0.00 71 1011.0
20260904203521 91 0 2.0 3.0 0.00 0.00 0.00 70 1010.9
20260904203419 91 1 2.0 3.0 0.00 0.00 0.00 69 1010.9
20260904203317 91 0 2.0 3.0 0.00 0.00 0.00 69 1010.9
20260904203216 91 0 2.0 3.0 0.00 0.00 0.00 69 1010.9
20260904203110 92 0 1.0 4.0 0.00 0.00 0.00 70 1010.9
20260904203010 91 0 1.0 4.0 0.00 0.00 0.00 69 1011.0
20260904202909 91 0 1.0 5.0 0.00 0.00 0.00 69 1011.0
20260904202807 91 0 1.0 5.0 0.00 0.00 0.00 68 1011.0
20260904202705 91 49 2.0 5.0 0.00 0.00 0.00 68 1011.0
20260904202602 91 49 1.0 5.0 0.00 0.00 0.00 69 1011.1
20260904202503 91 127 0.0 5.0 0.00 0.00 0.00 68 1011.1
20260904202403 91 141 1.0 6.0 0.00 0.00 0.00 67 1011.1
20260904202305 91 141 2.0 6.0 0.00 0.00 0.00 67 1011.2
20260904202202 92 141 3.0 6.0 0.00 0.00 0.00 67 1011.1
20260904202102 92 148 4.0 6.0 0.00 0.00 0.00 67 1011.1
20260904202004 92 118 4.0 9.0 0.00 0.00 0.00 67 1011.2
20260904201902 92 182 3.0 9.0 0.00 0.00 0.00 67 1011.1
20260904201802 92 200 2.0 9.0 0.00 0.00 0.00 67 1011.1
20260904201703 92 65 2.0 9.0 0.00 0.00 0.00 67 1011.2
20260904201603 92 61 3.0 9.0 0.00 0.00 0.00 66 1011.2
20260904201503 92 61 4.0 9.0 0.00 0.00 0.00 65 1011.2
20260904201402 93 86 3.0 9.0 0.00 0.00 0.00 65 1011.2
20260904201302 93 83 5.0 9.0 0.00 0.00 0.00 64 1011.2
20260904201202 94 96 6.0 9.0 0.00 0.00 0.00 64 1011.2
20260904201103 94 94 6.0 9.0 0.00 0.00 0.00 64 1011.2
20260904201004 94 80 3.0 9.0 0.00 0.00 0.00 64 1011.2
20260904200902 94 51 2.0 6.0 0.00 0.00 0.00 64 1011.2
20260904200803 94 345 2.0 6.0 0.00 0.00 0.00 65 1011.1
20260904200704 94 344 3.0 6.0 0.00 0.00 0.00 65 1011.2
20260904200602 94 343 3.0 6.0 0.00 0.00 0.00 65 1011.2
20260904200505 94 320 3.0 5.0 0.00 0.00 0.00 65 1011.1
20260904200403 94 330 4.0 5.0 0.00 0.00 0.00 65 1011.2
20260904200303 94 331 4.0 5.0 0.00 0.00 0.00 66 1011.1
20260904200202 93 317 4.0 5.0 0.00 0.00 0.00 66 1011.2
20260904200004 93 278 1.0 6.0 0.00 0.00 0.00 66 1011.1
20260904195902 93 4 0.0 6.0 0.00 0.00 0.00 66 1011.1
20260904195802 93 4 0.0 6.0 0.00 0.00 0.00 66 1011.2
20260904195702 93 27 1.0 6.0 0.00 0.00 0.00 66 1011.2
20260904195603 92 28 2.0 6.0 0.00 0.00 0.00 67 1011.2
20260904195502 92 14 2.0 6.0 0.00 0.00 0.00 68 1011.2
20260904195402 92 79 3.0 6.0 0.00 0.00 0.00 67 1011.3
20260904195306 92 80 4.0 6.0 0.00 0.00 0.00 67 1011.2
20260904195202 93 102 4.0 6.0 0.00 0.00 0.00 67 1011.2
20260904195103 93 182 4.0 6.0 0.00 0.00 0.00 67 1011.2
20260904195003 93 131 4.0 6.0 0.00 0.00 0.00 67 1011.2
20260904194902 93 124 3.0 6.0 0.00 0.00 0.00 68 1011.3
20260904194802 93 97 3.0 5.0 0.00 0.00 0.00 68 1011.2
20260904194702 93 110 2.0 5.0 0.00 0.00 0.00 69 1011.3
20260904194603 93 13 1.0 5.0 0.00 0.00 0.00 69 1011.3
20260904194502 93 302 1.0 5.0 0.00 0.00 0.00 69 1011.4
20260904194402 92 302 0.0 5.0 0.00 0.00 0.00 69 1011.3
20260904194303 92 307 0.0 5.0 0.00 0.00 0.00 69 1011.4
20260904194202 92 307 1.0 5.0 0.00 0.00 0.00 70 1011.5
20260904194103 92 306 2.0 5.0 0.00 0.00 0.00 69 1011.5
20260904194002 92 306 4.0 5.0 0.00 0.00 0.00 71 1011.5
20260904193903 92 309 3.0 4.0 0.00 0.00 0.00 70 1011.6
20260904193802 92 312 3.0 5.0 0.00 0.00 0.00 72 1011.5
20260904193702 92 340 2.0 6.0 0.00 0.00 0.00 72 1011.6
20260904193603 91 345 1.0 6.0 0.00 0.00 0.00 72 1011.5
20260904193503 91 345 2.0 6.0 0.00 0.00 0.00 73 1011.5
20260904193404 91 345 2.0 6.0 0.00 0.00 0.00 73 1011.5
20260904193302 91 300 2.0 6.0 0.00 0.00 0.00 74 1011.5
20260904193203 90 312 2.0 6.0 0.00 0.00 0.00 73 1011.5
20260904193102 90 312 3.0 7.0 0.00 0.00 0.00 74 1011.5
20260904193003 90 312 3.0 7.0 0.00 0.00 0.00 74 1011.4
20260904192903 90 279 4.0 7.0 0.00 0.00 0.00 75 1011.5
20260904192802 90 248 4.0 7.0 0.00 0.00 0.00 75 1011.6
20260904192702 89 264 4.0 7.0 0.00 0.00 0.00 76 1011.6
20260904192603 89 264 4.0 7.0 0.00 0.00 0.00 76 1011.7
20260904192502 89 264 4.0 7.0 0.00 0.00 0.00 76 1011.7
20260904192402 89 264 4.0 7.0 0.00 0.00 0.00 76 1011.6
20260904192306 89 264 4.0 7.0 0.00 0.00 0.00 76 1011.7
20260904192203 89 258 4.0 7.0 0.00 0.00 0.00 77 1011.7
20260904192103 89 219 4.0 7.0 0.00 0.00 0.00 77 1011.7
20260904192003 89 241 5.0 7.0 0.00 0.00 0.00 76 1011.7
20260904191903 89 278 4.0 7.0 0.00 0.00 0.00 76 1011.7
20260904191804 89 268 4.0 7.0 0.00 0.00 0.00 76 1011.8
20260904191704 89 285 4.0 7.0 0.00 0.00 0.00 77 1011.8
20260904191602 89 266 3.0 10.0 0.00 0.00 0.00 76 1011.8
20260904191504 89 295 3.0 10.0 0.00 0.00 0.00 76 1011.8
20260904191402 88 274 3.0 10.0 0.00 0.00 0.00 76 1011.8
20260904191302 88 295 4.0 10.0 0.00 0.00 0.00 77 1011.8
20260904191203 88 259 5.0 10.0 0.00 0.00 0.00 78 1011.8
20260904191103 87 309 5.0 10.0 0.00 0.00 0.00 79 1012.0
20260904191003 87 329 5.0 10.0 0.00 0.00 0.00 78 1011.9
20260904190902 87 313 5.0 10.0 0.00 0.00 0.00 78 1012.0
20260904190803 87 317 6.0 10.0 0.00 0.00 0.00 79 1012.0
20260904190703 86 300 6.0 10.0 0.00 0.00 0.00 79 1011.9
20260904190603 86 316 5.0 9.0 0.00 0.00 0.00 79 1012.0
20260904190504 86 283 5.0 7.0 0.00 0.00 0.00 80 1012.0
20260904190402 86 288 5.0 7.0 0.00 0.00 0.00 81 1012.1
20260904190301 86 288 5.0 7.0 0.00 0.00 0.00 80 1012.1
20260904190200 85 293 5.0 6.0 0.00 0.00 0.00 81 1012.1
20260904190101 85 298 4.0 9.0 0.00 0.00 0.00 82 1012.2
20260904185958 85 279 3.0 9.0 0.00 0.00 0.00 82 1012.2
20260904185859 85 298 4.0 9.0 0.00 0.00 0.00 82 1012.3
20260904185759 85 298 5.0 9.0 0.00 0.00 0.00 82 1012.3
20260904185659 85 300 5.0 9.0 0.00 0.00 0.00 83 1012.3
20260904185559 85 300 5.0 9.0 0.00 0.00 0.00 83 1012.3
20260904185459 85 0 4.0 9.0 0.00 0.00 0.00 83 1012.3
20260904185359 85 0 4.0 9.0 0.00 0.00 0.00 84 1012.2
20260904185258 85 0 4.0 9.0 0.00 0.00 0.00 83 1012.2
20260904185200 84 0 5.0 9.0 0.00 0.00 0.00 85 1012.3
20260904185058 84 0 4.0 9.0 0.00 0.00 0.00 85 1012.3
20260904184958 84 0 5.0 9.0 0.00 0.00 0.00 83 1012.4
20260904184857 84 155 6.0 9.0 0.00 0.00 0.00 81 1012.4
20260904184759 84 295 6.0 9.0 0.00 0.00 0.00 80 1012.5
20260904184657 84 302 6.0 9.0 0.00 0.00 0.00 80 1012.5
20260904184557 85 299 5.0 9.0 0.00 0.00 0.00 80 1012.5
20260904184458 85 281 5.0 9.0 0.00 0.00 0.00 79 1012.5
20260904184357 85 298 5.0 9.0 0.00 0.00 0.00 79 1012.5
20260904184257 85 289 6.0 9.0 0.00 0.00 0.00 78 1012.6
20260904184157 85 298 6.0 9.0 0.00 0.00 0.00 78 1012.6
20260904184059 85 295 5.0 9.0 0.00 0.00 0.00 78 1012.5
20260904183958 85 307 6.0 9.0 0.00 0.00 0.00 78 1012.5
20260904183857 85 300 6.0 9.0 0.00 0.00 0.00 77 1012.6
20260904183759 85 292 6.0 9.0 0.00 0.00 0.00 77 1012.5
20260904183658 85 293 5.0 9.0 0.00 0.00 0.00 76 1012.6
20260904183558 85 305 4.0 7.0 0.00 0.00 0.00 77 1012.5
20260904183459 85 302 4.0 9.0 0.00 0.00 0.00 76 1012.6
20260904183357 85 310 4.0 9.0 0.00 0.00 0.00 76 1012.6
20260904183257 85 312 4.0 9.0 0.00 0.00 0.00 76 1012.6
20260904183157 85 293 4.0 9.0 0.00 0.00 0.00 76 1012.6
20260904183059 85 293 5.0 10.0 0.00 0.00 0.00 76 1012.5
20260904182957 85 317 4.0 10.0 0.00 0.00 0.00 76 1012.6
20260904182859 85 326 5.0 10.0 0.00 0.00 0.00 76 1012.7
20260904182759 85 313 5.0 11.0 0.00 0.00 0.00 76 1012.7
20260904182658 85 313 5.0 11.0 0.00 0.00 0.00 76 1012.7
20260904182557 85 286 5.0 11.0 0.00 0.00 0.00 76 1012.7
20260904182457 85 262 5.0 11.0 0.00 0.00 0.00 76 1012.8
20260904182359 86 314 5.0 11.0 0.00 0.00 0.00 76 1012.8
20260904182256 86 286 6.0 11.0 0.00 0.00 0.00 75 1012.9
20260904182157 86 309 7.0 11.0 0.00 0.00 0.00 75 1012.9
20260904182058 86 289 6.0 11.0 0.00 0.00 0.00 75 1012.9
20260904181957 86 309 7.0 11.0 0.00 0.00 0.00 74 1013.0
20260904181857 87 324 7.0 15.0 0.00 0.00 0.00 74 1013.0
20260904181757 87 275 6.0 15.0 0.00 0.00 0.00 74 1013.1
20260904181658 87 292 5.0 15.0 0.00 0.00 0.00 75 1013.1
20260904181600 87 259 5.0 15.0 0.00 0.00 0.00 75 1013.1
20260904181456 87 276 5.0 15.0 0.00 0.00 0.00 74 1013.1
20260904181358 87 268 6.0 15.0 0.00 0.00 0.00 73 1013.1
20260904181257 87 243 6.0 15.0 0.00 0.00 0.00 73 1013.1
20260904181158 88 285 8.0 15.0 0.00 0.00 0.00 71 1013.2
20260904181058 89 219 10.0 15.0 0.00 0.00 0.00 68 1013.1
20260904180958 90 241 10.0 15.0 0.00 0.00 0.00 68 1013.1
20260904180857 92 243 6.0 13.0 0.00 0.00 0.00 67 1013.1
20260904180756 92 247 3.0 6.0 0.00 0.00 0.00 68 1013.1
20260904180658 93 3 2.0 6.0 0.00 0.00 0.00 68 1013.1
20260904180558 92 18 3.0 6.0 0.00 0.00 0.00 68 1013.1
20260904180456 92 18 4.0 6.0 0.00 0.00 0.00 67 1013.0
20260904180357 93 89 4.0 6.0 0.00 0.00 0.00 67 1013.0
20260904180257 93 73 2.0 6.0 0.00 0.00 0.00 68 1013.0
20260904180156 92 71 1.0 6.0 0.00 0.00 0.00 68 1012.9
20260904180056 92 87 2.0 7.0 0.00 0.00 0.00 67 1013.0
20260904175958 92 87 4.0 9.0 0.00 0.00 0.00 68 1013.0
20260904175856 92 145 4.0 9.0 0.00 0.00 0.00 68 1013.0
20260904175757 92 85 3.0 10.0 0.00 0.00 0.00 69 1013.1
20260904175657 91 134 1.0 10.0 0.00 0.00 0.00 71 1013.0
20260904175557 91 89 0.0 10.0 0.00 0.00 0.00 71 1013.0
20260904175457 91 89 2.0 10.0 0.00 0.00 0.00 72 1013.0
20260904175357 91 87 5.0 10.0 0.00 0.00 0.00 71 1013.0
20260904175258 91 124 6.0 10.0 0.00 0.00 0.00 72 1013.0
20260904175157 92 152 6.0 10.0 0.00 0.00 0.00 72 1013.0
20260904175056 92 75 6.0 10.0 0.00 0.00 0.00 72 1012.9
20260904174957 92 73 7.0 10.0 0.00 0.00 0.00 72 1012.9
20260904174852 92 56 7.0 10.0 0.00 0.00 0.00 72 1012.8
20260904174749 92 63 6.0 10.0 0.00 0.00 0.00 73 1012.8
20260904174648 91 47 5.0 7.0 0.00 0.00 0.00 74 1012.8
20260904174548 91 85 5.0 7.0 0.00 0.00 0.00 74 1012.9
20260904174444 91 109 5.0 7.0 0.00 0.00 0.00 74 1012.8
20260904174345 90 71 5.0 9.0 0.00 0.00 0.00 74 1012.8
20260904174243 90 92 4.0 9.0 0.00 0.00 0.00 74 1012.8
20260904174139 90 100 5.0 9.0 0.00 0.00 0.00 75 1012.9
20260904174035 90 100 5.0 12.0 0.00 0.00 0.00 75 1012.8
20260904173934 90 66 4.0 12.0 0.00 0.00 0.00 76 1012.8
20260904173833 90 62 4.0 12.0 0.00 0.00 0.00 77 1012.8
20260904173732 89 14 4.0 12.0 0.00 0.00 0.00 77 1012.8
20260904173631 89 49 5.0 12.0 0.00 0.00 0.00 77 1012.8
20260904173533 89 99 6.0 12.0 0.00 0.00 0.00 77 1012.9
20260904173431 89 94 6.0 12.0 0.00 0.00 0.00 78 1012.9
20260904173331 89 66 6.0 12.0 0.00 0.00 0.00 78 1012.9
20260904173233 88 82 7.0 12.0 0.00 0.00 0.00 78 1013.0
20260904173131 88 97 8.0 12.0 0.00 0.00 0.00 79 1012.9
20260904173031 88 66 7.0 10.0 0.00 0.00 0.00 80 1012.9
20260904172930 88 86 6.0 10.0 0.00 0.00 0.00 80 1012.9
20260904172833 88 96 6.0 10.0 0.00 0.00 0.00 81 1012.9
20260904172733 87 133 5.0 10.0 0.00 0.00 0.00 81 1012.9
20260904172631 87 90 5.0 10.0 0.00 0.00 0.00 82 1012.9
20260904172532 87 116 5.0 10.0 0.00 0.00 0.00 82 1012.9
20260904172431 87 75 5.0 10.0 0.00 0.00 0.00 82 1012.9
20260904172330 87 103 7.0 10.0 0.00 0.00 0.00 81 1013.0
20260904172232 87 118 8.0 10.0 0.00 0.00 0.00 81 1013.0
20260904172131 87 118 7.0 10.0 0.00 0.00 0.00 81 1013.1
20260904172031 87 117 6.0 9.0 0.00 0.00 0.00 81 1013.1
20260904171932 87 93 6.0 7.0 0.00 0.00 0.00 81 1013.2
20260904171833 87 104 5.0 7.0 0.00 0.00 0.00 81 1013.3
20260904171732 87 113 5.0 7.0 0.00 0.00 0.00 81 1013.3
20260904171631 87 109 5.0 7.0 0.00 0.00 0.00 81 1013.3
20260904171532 87 107 4.0 7.0 0.00 0.00 0.00 82 1013.3
20260904171432 87 114 4.0 7.0 0.00 0.00 0.00 82 1013.3
20260904171333 87 99 4.0 7.0 0.00 0.00 0.00 82 1013.3
20260904171231 87 145 4.0 7.0 0.00 0.00 0.00 82 1013.3
20260904171132 87 109 4.0 7.0 0.00 0.00 0.00 82 1013.3
20260904171031 87 82 4.0 7.0 0.00 0.00 0.00 81 1013.3
20260904170931 87 76 5.0 7.0 0.00 0.00 0.00 80 1013.3
20260904170833 87 85 5.0 7.0 0.00 0.00 0.00 81 1013.3
20260904170732 87 61 5.0 9.0 0.00 0.00 0.00 81 1013.3
20260904170632 87 75 6.0 9.0 0.00 0.00 0.00 82 1013.3
20260904170531 87 102 4.0 9.0 0.00 0.00 0.00 82 1013.2
20260904170432 87 100 3.0 9.0 0.00 0.00 0.00 82 1013.2
20260904170331 87 102 4.0 9.0 0.00 0.00 0.00 82 1013.2
20260904170231 87 86 4.0 9.0 0.00 0.00 0.00 82 1013.1
20260904170130 87 113 4.0 9.0 0.00 0.00 0.00 82 1013.1
20260904170032 87 82 4.0 9.0 0.00 0.00 0.00 82 1013.1
20260904165932 87 106 4.0 9.0 0.00 0.00 0.00 82 1013.2
20260904165833 87 110 5.0 9.0 0.00 0.00 0.00 81 1013.1
20260904165732 87 110 5.0 9.0 0.00 0.00 0.00 82 1013.1
20260904165632 87 113 6.0 9.0 0.00 0.00 0.00 82 1013.0
20260904165531 87 140 6.0 9.0 0.00 0.00 0.00 82 1013.1
20260904165433 87 121 5.0 10.0 0.00 0.00 0.00 83 1013.1
20260904165331 87 117 5.0 10.0 0.00 0.00 0.00 83 1013.1
20260904165231 87 90 5.0 10.0 0.00 0.00 0.00 83 1013.0
20260904165133 87 124 5.0 10.0 0.00 0.00 0.00 83 1013.0
20260904165032 87 94 4.0 10.0 0.00 0.00 0.00 84 1013.0
20260904164931 87 152 5.0 10.0 0.00 0.00 0.00 84 1013.0
20260904164831 87 158 5.0 10.0 0.00 0.00 0.00 84 1013.0
20260904164732 87 113 5.0 10.0 0.00 0.00 0.00 84 1013.0
20260904164632 87 104 5.0 10.0 0.00 0.00 0.00 84 1013.1
20260904164531 87 120 5.0 10.0 0.00 0.00 0.00 85 1013.1
20260904164432 87 86 5.0 9.0 0.00 0.00 0.00 85 1013.1
20260904164331 87 110 5.0 9.0 0.00 0.00 0.00 85 1013.1
20260904164231 87 79 5.0 9.0 0.00 0.00 0.00 85 1013.2
20260904164132 87 142 6.0 9.0 0.00 0.00 0.00 85 1013.2
20260904164032 87 110 6.0 9.0 0.00 0.00 0.00 85 1013.2
20260904163931 87 117 5.0 10.0 0.00 0.00 0.00 85 1013.1
20260904163831 87 128 5.0 10.0 0.00 0.00 0.00 84 1013.0
20260904163733 86 104 5.0 10.0 0.00 0.00 0.00 84 1013.1
20260904163631 86 102 6.0 10.0 0.00 0.00 0.00 84 1013.1
20260904163531 86 106 6.0 10.0 0.00 0.00 0.00 83 1013.1
20260904163433 86 104 6.0 10.0 0.00 0.00 0.00 84 1013.1
20260904163333 86 110 6.0 10.0 0.00 0.00 0.00 83 1013.0
20260904163231 86 154 6.0 10.0 0.00 0.00 0.00 83 1013.1
20260904163131 86 113 7.0 10.0 0.00 0.00 0.00 83 1013.0
20260904163032 86 89 6.0 10.0 0.00 0.00 0.00 83 1013.0
20260904162931 86 118 4.0 10.0 0.00 0.00 0.00 84 1012.9
20260904162831 86 147 4.0 10.0 0.00 0.00 0.00 84 1013.0
20260904162733 86 166 5.0 10.0 0.00 0.00 0.00 84 1013.0
20260904162632 86 97 5.0 10.0 0.00 0.00 0.00 84 1013.0
20260904162531 86 102 6.0 10.0 0.00 0.00 0.00 84 1013.0
20260904162431 86 116 6.0 10.0 0.00 0.00 0.00 84 1013.1
20260904162331 86 124 6.0 10.0 0.00 0.00 0.00 83 1013.1
20260904162232 86 103 7.0 10.0 0.00 0.00 0.00 84 1013.1
20260904162132 86 131 6.0 10.0 0.00 0.00 0.00 84 1013.1
20260904162032 86 116 5.0 10.0 0.00 0.00 0.00 84 1013.1
20260904161931 86 107 6.0 10.0 0.00 0.00 0.00 84 1013.1
20260904161832 86 93 6.0 10.0 0.00 0.00 0.00 84 1013.1
20260904161733 86 92 6.0 10.0 0.00 0.00 0.00 84 1013.1
20260904161632 86 96 6.0 10.0 0.00 0.00 0.00 84 1013.0
20260904161532 86 90 6.0 10.0 0.00 0.00 0.00 85 1013.0
20260904161431 86 96 5.0 10.0 0.00 0.00 0.00 85 1013.0
20260904161332 86 86 5.0 10.0 0.00 0.00 0.00 85 1013.1
20260904161231 86 107 4.0 10.0 0.00 0.00 0.00 85 1013.0
20260904161131 86 102 4.0 10.0 0.00 0.00 0.00 85 1013.1
20260904161032 86 107 4.0 10.0 0.00 0.00 0.00 85 1013.0
20260904160932 86 102 4.0 10.0 0.00 0.00 0.00 85 1013.0
20260904160832 86 110 5.0 10.0 0.00 0.00 0.00 85 1013.1
20260904160731 86 124 6.0 10.0 0.00 0.00 0.00 85 1013.0
20260904160633 86 114 6.0 10.0 0.00 0.00 0.00 85 1013.1
20260904160532 86 113 6.0 10.0 0.00 0.00 0.00 85 1013.1
20260904160431 86 96 5.0 9.0 0.00 0.00 0.00 85 1013.0
20260904160331 86 113 5.0 9.0 0.00 0.00 0.00 85 1013.1
20260904160231 86 96 4.0 9.0 0.00 0.00 0.00 85 1013.0
20260904160131 86 104 4.0 9.0 0.00 0.00 0.00 85 1013.0
20260904160032 86 109 5.0 9.0 0.00 0.00 0.00 85 1013.0
20260904155931 86 103 5.0 9.0 0.00 0.00 0.00 85 1013.1
20260904155831 86 104 4.0 9.0 0.00 0.00 0.00 85 1013.1
20260904155732 86 106 3.0 7.0 0.00 0.00 0.00 85 1013.0
20260904155633 86 99 4.0 7.0 0.00 0.00 0.00 85 1013.1
20260904155531 86 117 4.0 7.0 0.00 0.00 0.00 85 1013.1
20260904155431 86 125 3.0 7.0 0.00 0.00 0.00 85 1013.1
20260904155334 86 92 3.0 7.0 0.00 0.00 0.00 85 1013.0
20260904155232 86 106 3.0 7.0 0.00 0.00 0.00 85 1013.0
20260904155132 86 110 3.0 7.0 0.00 0.00 0.00 85 1013.1
20260904155032 86 103 4.0 7.0 0.00 0.00 0.00 85 1013.1
20260904154930 86 85 6.0 7.0 0.00 0.00 0.00 85 1013.1
20260904154831 86 93 6.0 7.0 0.00 0.00 0.00 85 1013.1
20260904154731 86 85 5.0 7.0 0.00 0.00 0.00 85 1013.2
20260904154632 86 138 4.0 7.0 0.00 0.00 0.00 85 1013.1
20260904154531 86 97 4.0 7.0 0.00 0.00 0.00 85 1013.2
20260904154432 86 89 4.0 7.0 0.00 0.00 0.00 85 1013.1
20260904154330 86 87 3.0 7.0 0.00 0.00 0.00 85 1013.1
20260904154231 86 97 2.0 7.0 0.00 0.00 0.00 85 1013.0
20260904154132 86 123 2.0 7.0 0.00 0.00 0.00 85 1013.0
20260904154034 86 137 4.0 7.0 0.00 0.00 0.00 85 1013.0
20260904153932 86 109 5.0 7.0 0.00 0.00 0.00 84 1013.0
20260904153832 86 89 5.0 7.0 0.00 0.00 0.00 85 1013.0
20260904153732 86 83 3.0 5.0 0.00 0.00 0.00 85 1012.9
20260904153633 86 96 2.0 5.0 0.00 0.00 0.00 85 1013.0
20260904153532 86 96 3.0 5.0 0.00 0.00 0.00 84 1013.0
20260904153432 86 96 4.0 5.0 0.00 0.00 0.00 84 1013.0
20260904153331 86 110 4.0 5.0 0.00 0.00 0.00 85 1012.9
20260904153232 86 100 4.0 5.0 0.00 0.00 0.00 85 1012.9
20260904153132 86 79 4.0 5.0 0.00 0.00 0.00 85 1012.9
20260904153031 86 73 4.0 5.0 0.00 0.00 0.00 85 1012.9
20260904152932 86 73 4.0 5.0 0.00 0.00 0.00 84 1012.8
20260904152832 86 76 4.0 5.0 0.00 0.00 0.00 84 1012.9
20260904152731 86 59 2.0 4.0 0.00 0.00 0.00 84 1012.8
20260904152631 86 58 1.0 4.0 0.00 0.00 0.00 85 1012.7
20260904152531 86 58 1.0 4.0 0.00 0.00 0.00 85 1012.7
20260904152431 86 58 2.0 4.0 0.00 0.00 0.00 84 1012.7
20260904152331 86 58 3.0 4.0 0.00 0.00 0.00 84 1012.7
20260904152232 86 59 2.0 5.0 0.00 0.00 0.00 84 1012.7
20260904152108 86 61 1.0 6.0 0.00 0.00 0.00 85 1012.6
20260904152009 86 118 0.0 6.0 0.00 0.00 0.00 84 1012.6
20260904151908 86 118 1.0 6.0 0.00 0.00 0.00 84 1012.6
20260904151806 86 118 2.0 7.0 0.00 0.00 0.00 84 1012.6
20260904151703 86 116 2.0 7.0 0.00 0.00 0.00 85 1012.7
20260904151603 86 94 2.0 7.0 0.00 0.00 0.00 85 1012.6
20260904151502 86 93 3.0 7.0 0.00 0.00 0.00 84 1012.7
20260904151402 86 94 5.0 7.0 0.00 0.00 0.00 84 1012.7
20260904151302 86 94 5.0 7.0 0.00 0.00 0.00 85 1012.7
20260904151202 86 87 5.0 7.0 0.00 0.00 0.00 85 1012.7
20260904151100 86 111 5.0 7.0 0.00 0.00 0.00 86 1012.7
20260904151000 86 56 5.0 7.0 0.00 0.00 0.00 85 1012.7
20260904150856 86 83 4.0 6.0 0.00 0.00 0.00 86 1012.8
20260904150752 86 86 4.0 6.0 0.00 0.00 0.00 86 1012.7
20260904150652 86 85 4.0 6.0 0.00 0.00 0.00 87 1012.8
20260904150554 86 71 3.0 6.0 0.00 0.00 0.00 87 1012.8
20260904150452 86 69 4.0 6.0 0.00 0.00 0.00 87 1012.8
20260904150352 85 76 5.0 6.0 0.00 0.00 0.00 87 1012.8
20260904150254 85 76 5.0 6.0 0.00 0.00 0.00 87 1012.7
20260904150153 85 66 4.0 6.0 0.00 0.00 0.00 87 1012.8
20260904150052 85 94 5.0 7.0 0.00 0.00 0.00 86 1012.7
20260904145952 85 76 4.0 7.0 0.00 0.00 0.00 86 1012.7
20260904145854 85 94 4.0 7.0 0.00 0.00 0.00 86 1012.7
20260904145752 85 103 4.0 7.0 0.00 0.00 0.00 86 1012.7
20260904145652 85 86 5.0 7.0 0.00 0.00 0.00 86 1012.8
20260904145554 85 83 5.0 7.0 0.00 0.00 0.00 86 1012.8
20260904145452 85 94 5.0 7.0 0.00 0.00 0.00 86 1012.7
20260904145353 85 90 5.0 7.0 0.00 0.00 0.00 85 1012.8
20260904145255 86 85 5.0 7.0 0.00 0.00 0.00 85 1012.7
20260904145152 86 93 6.0 7.0 0.00 0.00 0.00 85 1012.7
20260904145052 86 89 5.0 7.0 0.00 0.00 0.00 85 1012.7
20260904144953 86 80 5.0 7.0 0.00 0.00 0.00 85 1012.7
20260904144854 86 80 5.0 7.0 0.00 0.00 0.00 85 1012.6
20260904144753 86 89 5.0 7.0 0.00 0.00 0.00 84 1012.7
20260904144653 86 83 5.0 7.0 0.00 0.00 0.00 84 1012.7
20260904144555 86 55 4.0 7.0 0.00 0.00 0.00 84 1012.7
20260904144453 87 61 4.0 7.0 0.00 0.00 0.00 84 1012.6
20260904144352 87 73 4.0 7.0 0.00 0.00 0.00 84 1012.6
20260904144252 87 58 4.0 7.0 0.00 0.00 0.00 84 1012.6
20260904144153 87 51 4.0 7.0 0.00 0.00 0.00 84 1012.7
20260904144052 87 45 4.0 7.0 0.00 0.00 0.00 84 1012.6
20260904143953 87 24 2.0 6.0 0.00 0.00 0.00 84 1012.7
20260904143852 87 63 3.0 6.0 0.00 0.00 0.00 84 1012.7
20260904143752 87 102 4.0 6.0 0.00 0.00 0.00 84 1012.6
20260904143653 87 42 4.0 5.0 0.00 0.00 0.00 84 1012.6
20260904143552 87 79 4.0 5.0 0.00 0.00 0.00 84 1012.7
20260904143454 87 76 4.0 6.0 0.00 0.00 0.00 84 1012.7
20260904143353 87 7 4.0 6.0 0.00 0.00 0.00 84 1012.7
20260904143251 87 55 4.0 6.0 0.00 0.00 0.00 84 1012.6
20260904143153 87 39 4.0 6.0 0.00 0.00 0.00 84 1012.6
20260904143053 87 38 3.0 6.0 0.00 0.00 0.00 85 1012.6
20260904142953 87 8 2.0 6.0 0.00 0.00 0.00 85 1012.6
20260904142854 87 34 3.0 6.0 0.00 0.00 0.00 86 1012.6
20260904142751 86 34 4.0 6.0 0.00 0.00 0.00 86 1012.6
20260904142651 86 34 4.0 6.0 0.00 0.00 0.00 86 1012.6
20260904142550 86 32 3.0 6.0 0.00 0.00 0.00 86 1012.5
20260904142452 86 37 3.0 5.0 0.00 0.00 0.00 86 1012.5
20260904142352 86 90 3.0 6.0 0.00 0.00 0.00 86 1012.5
20260904142252 86 79 2.0 6.0 0.00 0.01 0.00 86 1012.5
20260904142152 85 79 3.0 6.0 0.00 0.01 0.00 86 1012.5
20260904142053 85 78 3.0 6.0 0.00 0.01 0.00 86 1012.4
20260904141951 85 78 3.0 6.0 0.00 0.01 0.00 87 1012.4
20260904141851 85 82 4.0 6.0 0.00 0.01 0.00 87 1012.5
20260904141752 85 97 4.0 6.0 0.00 0.02 0.00 87 1012.5
20260904141653 85 102 4.0 6.0 0.00 0.02 0.00 87 1012.5
20260904141549 85 76 4.0 6.0 0.00 0.02 0.00 88 1012.5
20260904141448 85 93 3.0 6.0 0.00 0.02 0.00 88 1012.5
20260904141346 85 68 2.0 5.0 0.00 0.02 0.00 88 1012.5
20260904141245 85 68 1.0 5.0 0.00 0.02 0.00 88 1012.6
20260904141144 85 66 1.0 5.0 0.00 0.02 0.00 89 1012.5
20260904141038 85 61 2.0 5.0 0.00 0.02 0.00 90 1012.4
20260904140938 84 61 3.0 5.0 0.00 0.02 0.00 89 1012.4
20260904140835 84 59 2.0 5.0 0.00 0.02 0.00 90 1012.5
20260904140734 84 49 3.0 5.0 0.00 0.02 0.00 90 1012.5
20260904140633 84 97 3.0 5.0 0.00 0.02 0.00 90 1012.4
20260904140530 84 109 4.0 5.0 0.00 0.02 0.00 90 1012.5
20260904140431 84 87 4.0 5.0 0.00 0.02 0.00 90 1012.4
20260904140331 84 82 4.0 5.0 0.00 0.02 0.00 90 1012.4
20260904140231 84 78 4.0 6.0 0.00 0.02 0.00 90 1012.4
20260904140133 84 58 4.0 6.0 0.00 0.02 0.00 90 1012.4
20260904140032 84 65 4.0 6.0 0.00 0.02 0.00 90 1012.4
20260904135932 84 63 4.0 6.0 0.00 0.02 0.00 91 1012.5
20260904135831 84 63 4.0 6.0 0.00 0.02 0.00 91 1012.4
20260904135732 84 62 4.0 6.0 0.00 0.02 0.00 91 1012.4
20260904135632 83 61 4.0 6.0 0.00 0.02 0.00 91 1012.5
20260904135531 83 28 3.0 6.0 0.00 0.02 0.00 91 1012.5
20260904135431 83 49 3.0 6.0 0.00 0.02 0.00 91 1012.5
20260904135333 83 55 3.0 6.0 0.00 0.02 0.00 91 1012.5
20260904135232 83 61 3.0 6.0 0.00 0.02 0.00 91 1012.5
20260904135133 83 65 4.0 6.0 0.00 0.02 0.00 91 1012.4
20260904135032 83 52 3.0 5.0 0.00 0.02 0.00 92 1012.4
20260904134931 83 42 2.0 4.0 0.00 0.02 0.00 92 1012.4
20260904134832 83 31 2.0 4.0 0.00 0.02 0.00 92 1012.3
20260904134731 83 16 1.0 5.0 0.00 0.02 0.00 92 1012.4
20260904134631 83 16 2.0 6.0 0.00 0.02 0.00 92 1012.4
20260904134531 83 16 2.0 6.0 0.00 0.02 0.00 92 1012.3
20260904134428 83 16 2.0 7.0 0.00 0.02 0.00 92 1012.3
20260904134327 83 16 3.0 7.0 0.00 0.02 0.00 93 1012.3
20260904134222 83 14 3.0 7.0 0.00 0.02 0.00 93 1012.3
20260904134122 83 13 2.0 7.0 0.00 0.02 0.00 93 1012.3
20260904134022 83 61 2.0 7.0 0.00 0.02 0.00 93 1012.4
20260904133921 83 61 3.0 7.0 0.00 0.02 0.00 93 1012.4
20260904133820 82 62 4.0 7.0 0.00 0.02 0.00 93 1012.3
20260904133718 82 61 4.0 7.0 0.00 0.02 0.00 93 1012.3
20260904133616 82 42 5.0 7.0 0.00 0.02 0.00 93 1012.3
20260904133516 82 51 5.0 7.0 0.00 0.02 0.00 93 1012.3
20260904133414 82 45 4.0 6.0 0.00 0.02 0.00 93 1012.3
20260904133313 82 41 4.0 6.0 0.00 0.02 0.00 93 1012.3
20260904133210 82 49 5.0 6.0 0.00 0.02 0.00 93 1012.3
20260904133110 82 41 4.0 5.0 0.00 0.02 0.00 93 1012.3
20260904133008 82 35 4.0 5.0 0.00 0.02 0.00 93 1012.3
20260904132906 82 21 4.0 5.0 0.00 0.02 0.00 93 1012.3
20260904132805 82 42 4.0 5.0 0.00 0.02 0.00 93 1012.3
20260904132704 82 42 4.0 5.0 0.00 0.02 0.00 93 1012.2
20260904132603 82 39 4.0 5.0 0.00 0.02 0.00 93 1012.3
20260904132503 82 51 4.0 5.0 0.00 0.02 0.00 93 1012.3
20260904132403 82 41 3.0 4.0 0.00 0.02 0.00 93 1012.2
20260904132306 82 39 3.0 4.0 0.00 0.02 0.00 93 1012.3
20260904132204 82 39 2.0 4.0 0.00 0.02 0.00 94 1012.3
20260904132103 82 39 2.0 4.0 0.00 0.02 0.00 94 1012.3
20260904132004 82 39 3.0 4.0 0.00 0.02 0.00 94 1012.3
20260904131902 82 39 2.0 4.0 0.00 0.02 0.00 94 1012.3
20260904131803 82 39 2.0 5.0 0.00 0.02 0.00 94 1012.2
20260904131703 82 39 2.0 5.0 0.00 0.02 0.00 94 1012.3
20260904131602 82 39 2.0 5.0 0.00 0.02 0.00 94 1012.3
20260904131503 82 39 2.0 5.0 0.00 0.02 0.00 94 1012.2
20260904131401 82 39 2.0 5.0 0.00 0.02 0.00 94 1012.2
20260904131303 82 39 3.0 5.0 0.00 0.02 0.00 94 1012.2
20260904131202 82 39 3.0 5.0 0.00 0.02 0.00 94 1012.2
20260904131102 82 39 4.0 5.0 0.00 0.02 0.00 94 1012.2
20260904131005 82 39 4.0 5.0 0.00 0.02 0.00 94 1012.2
20260904130903 82 39 2.0 5.0 0.00 0.02 0.00 94 1012.1
20260904130804 82 39 1.0 2.0 0.00 0.02 0.00 95 1012.1
20260904130702 82 39 1.0 2.0 0.00 0.02 0.00 95 1012.1
20260904130602 82 39 1.0 2.0 0.00 0.02 0.00 95 1012.1
20260904130504 82 39 1.0 2.0 0.00 0.02 0.00 95 1012.1
20260904130404 82 39 1.0 3.0 0.00 0.02 0.00 95 1012.1
20260904130303 82 39 1.0 4.0 0.00 0.02 0.00 95 1012.0
20260904130204 82 39 1.0 4.0 0.00 0.02 0.00 95 1012.0
20260904130004 81 39 0.0 4.0 0.00 0.02 0.00 95 1012.1
20260904125904 81 39 0.0 4.0 0.00 0.02 0.00 95 1012.1
20260904125803 81 39 0.0 4.0 0.00 0.02 0.00 95 1012.0
20260904125702 81 39 1.0 5.0 0.00 0.02 0.00 95 1012.1
20260904125603 81 25 2.0 5.0 0.00 0.02 0.00 95 1012.0
20260904125503 81 24 2.0 5.0 0.00 0.02 0.00 95 1012.1
20260904125401 81 24 3.0 5.0 0.00 0.02 0.00 95 1012.0
20260904125305 81 24 3.0 5.0 0.00 0.02 0.00 95 1012.1
20260904125204 81 25 3.0 5.0 0.00 0.02 0.00 95 1012.1
20260904125103 81 38 3.0 5.0 0.00 0.02 0.00 95 1012.0
20260904125003 81 38 3.0 5.0 0.00 0.02 0.00 95 1012.1
20260904124903 81 38 3.0 5.0 0.00 0.02 0.00 95 1012.0
20260904124802 81 37 4.0 5.0 0.00 0.02 0.00 95 1012.0
20260904124702 81 35 3.0 5.0 0.00 0.02 0.00 95 1012.0
20260904124603 81 32 3.0 4.0 0.00 0.02 0.00 95 1012.0
20260904124503 80 31 3.0 4.0 0.00 0.02 0.00 95 1012.0
20260904124403 80 31 3.0 4.0 0.00 0.02 0.00 95 1012.0
20260904124304 80 30 3.0 4.0 0.00 0.02 0.00 95 1012.0
20260904124202 80 51 3.0 4.0 0.00 0.02 0.00 95 1012.1
20260904124102 80 52 3.0 4.0 0.00 0.02 0.00 95 1012.0
20260904124003 80 52 4.0 4.0 0.00 0.02 0.00 95 1011.9
20260904123903 80 51 3.0 4.0 0.00 0.02 0.00 95 1011.9
20260904123801 80 52 3.0 4.0 0.00 0.02 0.00 95 1011.9
20260904123703 80 52 2.0 4.0 0.00 0.02 0.00 95 1011.8
20260904123604 80 54 3.0 4.0 0.00 0.02 0.00 95 1011.8
20260904123503 80 54 3.0 4.0 0.00 0.02 0.00 95 1011.8
20260904123402 80 54 3.0 4.0 0.00 0.02 0.00 95 1011.7
20260904123302 80 54 2.0 4.0 0.00 0.02 0.00 95 1011.7
20260904123204 80 66 2.0 3.0 0.00 0.02 0.00 95 1011.7
20260904123102 80 66 2.0 3.0 0.00 0.02 0.00 95 1011.6
20260904123004 80 68 2.0 3.0 0.00 0.02 0.00 95 1011.6
20260904122904 80 68 2.0 3.0 0.00 0.02 0.00 95 1011.6
20260904122804 80 68 2.0 3.0 0.00 0.02 0.00 95 1011.7
20260904122702 80 68 2.0 3.0 0.00 0.02 0.00 95 1011.6
20260904122603 80 68 2.0 3.0 0.00 0.02 0.00 95 1011.6
20260904122503 80 69 2.0 3.0 0.00 0.02 0.00 95 1011.5
20260904122403 80 69 2.0 2.0 0.00 0.02 0.00 95 1011.6
20260904122306 80 69 2.0 2.0 0.00 0.02 0.00 95 1011.5
20260904122203 80 69 1.0 2.0 0.00 0.02 0.00 95 1011.5
20260904122103 80 69 0.0 2.0 0.00 0.02 0.00 95 1011.5
20260904121959 80 69 0.0 3.0 0.00 0.02 0.00 95 1011.5
20260904121859 80 69 0.0 3.0 0.00 0.02 0.00 95 1011.4
20260904121758 80 69 0.0 3.0 0.00 0.02 0.00 95 1011.5
20260904121656 80 69 0.0 4.0 0.00 0.02 0.00 95 1011.5
20260904121554 80 69 0.0 4.0 0.00 0.02 0.00 95 1011.4
20260904121454 80 69 0.0 4.0 0.00 0.02 0.00 95 1011.4
20260904121351 80 69 0.0 4.0 0.00 0.02 0.00 95 1011.4
20260904121251 80 69 1.0 5.0 0.00 0.02 0.00 95 1011.3
20260904121148 80 69 2.0 5.0 0.00 0.02 0.00 95 1011.3
20260904121048 80 69 2.0 5.0 0.00 0.02 0.00 95 1011.3
20260904120948 80 69 2.0 5.0 0.00 0.02 0.00 95 1011.4
20260904120848 80 69 2.0 5.0 0.00 0.02 0.00 95 1011.4
20260904120749 80 69 2.0 5.0 0.00 0.02 0.00 95 1011.4
20260904120649 80 68 3.0 5.0 0.00 0.02 0.00 95 1011.3
20260904120549 80 68 3.0 5.0 0.00 0.02 0.00 95 1011.3
20260904120448 80 68 3.0 5.0 0.00 0.02 0.00 95 1011.3
20260904120348 80 66 3.0 5.0 0.00 0.02 0.00 95 1011.3
20260904120248 80 66 3.0 5.0 0.00 0.02 0.00 95 1011.4
20260904120148 80 65 3.0 5.0 0.00 0.02 0.00 95 1011.3
20260904120049 80 65 3.0 5.0 0.00 0.02 0.00 95 1011.4
20260904115948 80 63 3.0 5.0 0.00 0.02 0.00 95 1011.4
20260904115850 80 63 2.0 5.0 0.00 0.02 0.00 95 1011.4
20260904115749 80 58 0.0 0.0 0.00 0.03 0.00 95 1011.3
20260904115648 80 58 0.0 0.0 0.00 0.03 0.00 95 1011.3
20260904115549 80 58 0.0 0.0 0.00 0.03 0.00 95 1011.4
20260904115448 80 58 0.0 0.0 0.00 0.03 0.00 95 1011.3
20260904115348 80 58 0.0 0.0 0.00 0.03 0.00 95 1011.4
20260904115248 80 58 0.0 0.0 0.00 0.03 0.00 95 1011.3
20260904115149 80 58 0.0 0.0 0.00 0.03 0.00 95 1011.3
20260904115048 80 58 0.0 0.0 0.00 0.03 0.00 95 1011.3
20260904114948 80 58 0.0 0.0 0.00 0.03 0.00 95 1011.3
20260904114850 80 58 0.0 0.0 0.00 0.03 0.00 95 1011.2
20260904114749 80 58 0.0 0.0 0.00 0.03 0.00 95 1011.3
20260904114648 80 58 0.0 0.0 0.00 0.03 0.00 95 1011.3
20260904114548 80 58 0.0 0.0 0.00 0.03 0.00 95 1011.3
20260904114449 80 58 0.0 0.0 0.00 0.03 0.00 95 1011.3
20260904114349 80 58 0.0 0.0 0.00 0.03 0.00 95 1011.3
20260904114247 80 56 0.0 0.0 0.00 0.03 0.00 95 1011.2
20260904114149 80 58 0.0 0.0 0.00 0.03 0.00 95 1011.2
20260904114048 80 58 0.0 0.0 0.00 0.04 0.00 95 1011.2
20260904113949 80 58 0.0 0.0 0.00 0.04 0.00 95 1011.3
20260904113849 80 58 0.0 0.0 0.00 0.04 0.00 95 1011.2
20260904113748 80 58 0.0 0.0 0.00 0.04 0.00 95 1011.3
20260904113647 80 58 0.0 0.0 0.00 0.04 0.00 95 1011.3
20260904113548 80 58 0.0 0.0 0.00 0.04 0.00 95 1011.3
20260904113449 80 58 0.0 0.0 0.00 0.04 0.00 95 1011.3
20260904113348 80 58 0.0 0.0 0.00 0.04 0.00 95 1011.3
20260904113247 80 58 0.0 0.0 0.00 0.05 0.00 95 1011.4
20260904113149 80 58 0.0 0.0 0.00 0.05 0.00 95 1011.4
20260904113048 80 58 0.0 0.0 0.00 0.05 0.00 95 1011.4
20260904112947 80 58 0.0 0.0 0.00 0.06 0.00 95 1011.4
20260904112848 80 58 0.0 0.0 0.00 0.06 0.00 95 1011.3
20260904112749 80 58 0.0 0.0 0.00 0.06 0.00 95 1011.4
20260904112648 80 58 0.0 0.0 0.00 0.07 0.00 95 1011.3
20260904112547 80 58 0.0 0.0 0.00 0.07 0.00 95 1011.3
20260904112448 80 58 0.0 0.0 0.00 0.08 0.00 95 1011.3
20260904112333 80 58 0.0 0.0 0.00 0.09 0.00 95 1011.3
20260904112233 80 58 0.0 0.0 0.00 0.09 0.00 95 1011.3
20260904112130 80 58 0.0 0.0 0.00 0.10 0.00 95 1011.3
20260904112030 80 58 0.0 0.0 0.00 0.10 0.00 95 1011.2
20260904111933 80 58 0.0 0.0 0.00 0.11 0.00 95 1011.2
20260904111832 80 58 0.0 0.0 0.00 0.11 0.00 95 1011.2
20260904111731 80 58 0.0 0.0 0.00 0.12 0.00 95 1011.3
20260904111630 80 58 0.0 0.0 0.00 0.12 0.00 95 1011.3
20260904111527 80 58 0.0 0.0 0.00 0.12 0.00 95 1011.3
20260904111426 80 58 0.0 0.0 0.00 0.12 0.00 95 1011.2
20260904111325 80 58 0.0 0.0 0.00 0.13 0.00 95 1011.3
20260904111223 80 58 0.0 1.0 0.00 0.13 0.00 95 1011.2
20260904111122 80 58 0.0 3.0 0.00 0.13 0.00 95 1011.2
20260904111017 80 58 0.0 3.0 0.00 0.13 0.00 95 1011.3
20260904110917 80 58 0.0 3.0 0.00 0.13 0.00 95 1011.2
20260904110816 80 58 0.0 3.0 0.00 0.14 0.00 95 1011.3
20260904110713 80 58 0.0 3.0 0.00 0.14 0.00 95 1011.3
20260904110611 80 58 0.0 3.0 0.00 0.14 0.00 95 1011.3
20260904110510 80 58 0.0 3.0 0.00 0.14 0.00 95 1011.3
20260904110409 80 58 0.0 3.0 0.00 0.14 0.00 95 1011.3
20260904110306 80 58 1.0 3.0 0.00 0.14 0.00 95 1011.3
20260904110206 80 58 2.0 5.0 0.00 0.14 0.00 95 1011.3
20260904110104 80 58 1.0 5.0 0.00 0.14 0.00 95 1011.3
20260904110004 80 58 1.0 5.0 0.00 0.14 0.00 95 1011.3
20260904105903 80 58 2.0 5.0 0.00 0.14 0.00 95 1011.3
20260904105802 80 58 2.0 5.0 0.00 0.14 0.00 95 1011.3
20260904105704 80 58 2.0 5.0 0.00 0.14 0.00 95 1011.4
20260904105603 80 58 2.0 5.0 0.00 0.14 0.00 95 1011.3
20260904105504 80 58 2.0 5.0 0.00 0.14 0.00 95 1011.3
20260904105401 80 58 3.0 5.0 0.00 0.14 0.00 95 1011.2
20260904105305 80 58 4.0 5.0 0.00 0.14 0.00 95 1011.3
20260904105202 80 56 4.0 5.0 0.00 0.14 0.00 95 1011.3
20260904105104 80 82 3.0 5.0 0.00 0.14 0.00 95 1011.3
20260904105003 80 82 3.0 5.0 0.00 0.14 0.00 95 1011.4
20260904104904 80 82 3.0 5.0 0.00 0.14 0.00 95 1011.3
20260904104803 80 82 3.0 5.0 0.00 0.14 0.00 95 1011.3
20260904104702 80 68 3.0 5.0 0.00 0.14 0.00 95 1011.2
20260904104603 80 66 3.0 5.0 0.00 0.14 0.00 95 1011.2
20260904104502 80 66 3.0 5.0 0.00 0.14 0.00 95 1011.3
20260904104402 80 66 4.0 5.0 0.00 0.14 0.00 95 1011.2
20260904104304 80 65 3.0 5.0 0.00 0.14 0.00 95 1011.3
20260904104203 80 65 3.0 4.0 0.00 0.14 0.00 95 1011.2
20260904104102 80 65 3.0 4.0 0.00 0.14 0.00 95 1011.2
20260904104003 80 63 3.0 4.0 0.00 0.14 0.00 95 1011.3
20260904103903 80 63 3.0 4.0 0.00 0.14 0.00 95 1011.3
20260904103802 80 63 3.0 4.0 0.00 0.14 0.00 95 1011.2
20260904103702 80 54 2.0 4.0 0.00 0.14 0.00 95 1011.3
20260904103602 80 52 2.0 3.0 0.00 0.14 0.00 95 1011.3
20260904103502 80 52 2.0 3.0 0.00 0.14 0.00 95 1011.3
20260904103403 80 52 2.0 3.0 0.00 0.14 0.00 95 1011.3
20260904103303 80 52 2.0 3.0 0.00 0.14 0.00 95 1011.3
20260904103202 80 52 2.0 3.0 0.00 0.14 0.00 95 1011.3
20260904103102 80 52 2.0 3.0 0.00 0.14 0.00 95 1011.2
20260904103002 80 52 2.0 3.0 0.00 0.14 0.00 95 1011.2
20260904102903 80 52 2.0 3.0 0.00 0.14 0.00 95 1011.2
20260904102802 80 52 2.0 3.0 0.00 0.14 0.00 95 1011.2
20260904102704 80 52 2.0 4.0 0.00 0.14 0.00 95 1011.1
20260904102603 80 52 2.0 4.0 0.00 0.14 0.00 95 1011.1
20260904102503 80 52 2.0 4.0 0.00 0.14 0.00 95 1011.1
20260904102404 80 52 2.0 4.0 0.00 0.14 0.00 95 1011.1
20260904102301 80 52 2.0 4.0 0.00 0.14 0.00 95 1011.1
20260904102204 80 52 2.0 4.0 0.00 0.14 0.00 95 1011.0
20260904102103 80 52 2.0 4.0 0.00 0.14 0.00 95 1011.0
20260904102003 80 52 2.0 4.0 0.00 0.14 0.00 95 1011.0
20260904101903 80 54 2.0 4.0 0.00 0.14 0.00 95 1011.0
20260904101802 80 54 3.0 4.0 0.00 0.14 0.00 95 1011.0
20260904101702 80 75 2.0 4.0 0.00 0.14 0.00 95 1011.0
20260904101603 80 76 2.0 4.0 0.00 0.14 0.00 95 1010.9
20260904101503 80 76 2.0 4.0 0.00 0.14 0.00 95 1010.9
20260904101403 80 78 2.0 4.0 0.00 0.14 0.00 95 1011.0
20260904101303 80 78 2.0 4.0 0.00 0.14 0.00 95 1010.9
20260904101203 80 78 2.0 4.0 0.00 0.14 0.00 95 1011.0
20260904101103 80 78 2.0 3.0 0.00 0.14 0.00 95 1011.0
20260904101002 80 78 2.0 3.0 0.00 0.14 0.00 95 1011.0
20260904100903 80 79 0.0 3.0 0.00 0.14 0.00 95 1010.9
20260904100803 80 100 0.0 0.0 0.00 0.14 0.00 95 1010.9
20260904100703 80 102 0.0 0.0 0.00 0.14 0.00 95 1010.9
20260904100603 80 102 0.0 0.0 0.00 0.14 0.00 95 1010.9
20260904100504 80 102 0.0 0.0 0.00 0.14 0.00 95 1010.9
20260904100402 80 102 0.0 0.0 0.00 0.14 0.00 95 1010.8
20260904100302 80 102 0.0 0.0 0.00 0.14 0.00 95 1010.8
20260904100203 80 102 0.0 0.0 0.00 0.14 0.00 95 1010.9
20260904100004 80 102 0.0 0.0 0.00 0.14 0.00 95 1010.9
20260904095904 80 102 0.0 0.0 0.00 0.14 0.00 95 1010.8
20260904095804 80 102 0.0 0.0 0.00 0.14 0.00 95 1010.8
20260904095702 80 102 0.0 0.0 0.00 0.14 0.00 95 1010.9
20260904095602 80 102 0.0 0.0 0.00 0.14 0.00 95 1010.8
20260904095503 80 102 0.0 0.0 0.00 0.14 0.00 95 1010.8
20260904095402 80 102 0.0 0.0 0.00 0.14 0.00 95 1010.9
20260904095306 80 102 0.0 0.0 0.00 0.14 0.00 95 1010.7
20260904095205 80 102 0.0 0.0 0.00 0.14 0.00 95 1010.8
20260904095102 80 102 0.0 0.0 0.00 0.14 0.00 95 1010.8
20260904095002 80 102 0.0 0.0 0.00 0.14 0.00 95 1010.8
20260904094902 80 102 0.0 0.0 0.00 0.14 0.00 95 1010.8
20260904094802 80 102 0.0 0.0 0.00 0.14 0.00 95 1010.8
20260904094702 80 102 0.0 0.0 0.00 0.14 0.00 95 1010.8
20260904094604 80 102 0.0 0.0 0.00 0.14 0.00 95 1010.8
20260904094503 80 102 0.0 0.0 0.00 0.14 0.00 95 1010.7
20260904094402 80 102 0.0 0.0 0.00 0.14 0.00 95 1010.8
20260904094302 80 102 0.0 0.0 0.00 0.14 0.00 95 1010.8
20260904094203 80 102 0.0 0.0 0.00 0.14 0.00 95 1010.7
20260904094103 80 102 0.0 0.0 0.00 0.14 0.00 95 1010.7
20260904094003 80 102 0.0 0.0 0.00 0.14 0.00 95 1010.7
20260904093903 80 102 0.0 0.0 0.00 0.14 0.00 95 1010.7
20260904093803 80 102 0.0 0.0 0.00 0.14 0.00 95 1010.7
20260904093703 80 102 0.0 0.0 0.00 0.14 0.00 94 1010.7
20260904093602 80 102 0.0 0.0 0.00 0.14 0.00 95 1010.7
20260904093502 80 102 0.0 0.0 0.00 0.14 0.00 94 1010.8
20260904093402 80 102 0.0 0.0 0.00 0.14 0.00 94 1010.7
20260904093303 80 102 0.0 0.0 0.00 0.14 0.00 94 1010.7
20260904093202 80 102 0.0 0.0 0.00 0.14 0.00 95 1010.7
20260904093102 80 102 0.0 0.0 0.00 0.14 0.00 95 1010.7
20260904093002 80 102 0.0 0.0 0.00 0.14 0.00 95 1010.7
20260904092902 80 102 0.0 0.0 0.00 0.14 0.00 95 1010.7
20260904092803 80 102 0.0 0.0 0.00 0.14 0.00 94 1010.7
20260904092703 80 102 0.0 0.0 0.00 0.14 0.00 94 1010.7
20260904092602 80 102 0.0 0.0 0.00 0.14 0.00 94 1010.7
20260904092502 80 102 0.0 0.0 0.00 0.14 0.00 94 1010.7
20260904092402 80 102 0.0 0.0 0.00 0.14 0.00 94 1010.8
20260904092306 80 102 0.0 0.0 0.00 0.14 0.00 94 1010.7
20260904092202 80 102 0.0 0.0 0.00 0.14 0.00 94 1010.7
20260904092103 80 102 0.0 0.0 0.00 0.14 0.00 94 1010.7
20260904092003 80 102 0.0 0.0 0.00 0.14 0.00 94 1010.7
20260904091903 80 102 0.0 0.0 0.00 0.14 0.00 94 1010.6
20260904091748 80 102 0.0 0.0 0.00 0.14 0.00 94 1010.6
20260904091647 80 102 0.0 0.0 0.00 0.14 0.00 94 1010.6
20260904091546 80 102 0.0 0.0 0.00 0.14 0.00 94 1010.6
20260904091444 80 102 0.0 0.0 0.00 0.14 0.00 94 1010.7
20260904091344 80 102 0.0 0.0 0.00 0.14 0.00 94 1010.6
20260904091244 80 102 0.0 0.0 0.00 0.14 0.00 94 1010.6
20260904091146 80 102 0.0 0.0 0.00 0.14 0.00 94 1010.7
20260904091046 80 93 0.0 0.0 0.00 0.14 0.00 94 1010.6
20260904090946 80 96 0.0 0.0 0.00 0.14 0.00 94 1010.6
20260904090845 80 96 0.0 0.0 0.00 0.14 0.00 94 1010.6
20260904090744 80 96 0.0 0.0 0.00 0.14 0.00 94 1010.7
20260904090644 80 96 0.0 0.0 0.00 0.14 0.00 94 1010.7
20260904090545 80 96 0.0 0.0 0.00 0.14 0.00 94 1010.8
20260904090444 80 96 0.0 0.0 0.00 0.14 0.00 94 1010.8
20260904090344 80 96 0.0 0.0 0.00 0.14 0.00 94 1010.8
20260904090244 80 97 0.0 0.0 0.00 0.14 0.00 94 1010.8
20260904090147 80 97 0.0 0.0 0.00 0.14 0.00 94 1010.8
20260904090045 80 99 0.0 0.0 0.00 0.14 0.00 94 1010.8
20260904085946 80 99 0.0 0.0 0.00 0.14 0.00 94 1010.8
20260904085846 81 100 0.0 0.0 0.00 0.14 0.00 94 1010.9
20260904085745 80 100 0.0 0.0 0.00 0.14 0.00 94 1010.8
20260904085642 81 100 0.0 0.0 0.00 0.14 0.00 94 1010.9
20260904085542 81 100 0.0 0.0 0.00 0.14 0.00 94 1010.9
20260904085439 81 100 0.0 0.0 0.00 0.14 0.00 94 1010.8
20260904085338 81 100 0.0 0.0 0.00 0.14 0.00 94 1010.8
20260904085237 81 100 0.0 0.0 0.00 0.14 0.00 94 1010.9
20260904085135 81 100 0.0 0.0 0.00 0.14 0.00 94 1010.9
20260904085034 81 100 0.0 0.0 0.00 0.14 0.00 94 1010.8
20260904084931 81 100 0.0 0.0 0.00 0.14 0.00 93 1010.9
20260904084831 81 102 0.0 0.0 0.00 0.14 0.00 94 1010.8
20260904084731 81 102 0.0 0.0 0.00 0.14 0.00 93 1010.9
20260904084632 81 102 0.0 0.0 0.00 0.14 0.00 93 1010.8
20260904084531 81 102 0.0 0.0 0.00 0.14 0.00 93 1010.8
20260904084432 81 102 0.0 0.0 0.00 0.14 0.00 93 1010.8
20260904084331 81 102 0.0 0.0 0.00 0.14 0.00 93 1010.9
20260904084232 81 102 0.0 0.0 0.00 0.14 0.00 93 1010.8
20260904084131 81 102 0.0 0.0 0.00 0.14 0.00 93 1010.8
20260904084031 81 102 0.0 0.0 0.00 0.14 0.00 93 1010.8
20260904083932 81 102 0.0 0.0 0.00 0.14 0.00 93 1010.9
20260904083832 81 102 0.0 0.0 0.00 0.14 0.00 93 1010.9
20260904083731 81 102 0.0 0.0 0.00 0.14 0.00 93 1010.9
20260904083631 81 102 0.0 0.0 0.00 0.14 0.00 93 1010.9
20260904083532 81 102 0.0 0.0 0.00 0.14 0.00 93 1010.9
20260904083432 81 102 0.0 0.0 0.00 0.14 0.00 93 1010.9
20260904083331 81 102 0.0 0.0 0.00 0.14 0.00 93 1010.9
20260904083231 81 102 0.0 0.0 0.00 0.14 0.00 93 1010.9
20260904083132 81 102 0.0 0.0 0.00 0.14 0.00 93 1011.0
20260904083031 81 102 0.0 0.0 0.00 0.14 0.00 93 1010.8
20260904082932 81 102 0.0 0.0 0.00 0.14 0.00 93 1010.9
20260904082832 81 102 0.0 0.0 0.00 0.14 0.00 93 1010.9
20260904082731 81 102 0.0 0.0 0.00 0.14 0.00 93 1011.0
20260904082630 81 102 0.0 0.0 0.00 0.14 0.00 93 1010.9
20260904082533 81 102 0.0 0.0 0.00 0.14 0.00 93 1011.0
20260904082431 81 102 0.0 0.0 0.00 0.14 0.00 93 1011.0
20260904082332 81 102 0.0 0.0 0.00 0.14 0.00 93 1011.0
20260904082233 81 102 0.0 0.0 0.00 0.14 0.00 93 1011.1
20260904082111 81 102 0.0 0.0 0.00 0.14 0.00 93 1011.0
20260904082012 81 102 0.0 0.0 0.00 0.14 0.00 93 1011.0
20260904081910 81 102 0.0 0.0 0.00 0.14 0.00 93 1011.0
20260904081807 81 102 0.0 0.0 0.00 0.14 0.00 93 1011.0
20260904081706 81 102 0.0 0.0 0.00 0.14 0.00 93 1011.0
20260904081605 81 102 0.0 0.0 0.00 0.14 0.00 93 1011.0
20260904081503 81 102 0.0 0.0 0.00 0.14 0.00 93 1011.0
20260904081403 81 102 0.0 0.0 0.00 0.14 0.00 93 1011.0
20260904081304 81 102 0.0 0.0 0.00 0.14 0.00 93 1011.0
20260904081202 81 102 0.0 0.0 0.00 0.14 0.00 93 1011.0
20260904081102 81 102 0.0 0.0 0.00 0.14 0.00 93 1011.0
20260904081002 81 102 0.0 0.0 0.00 0.14 0.00 92 1011.0
20260904080904 81 102 0.0 0.0 0.00 0.14 0.00 92 1011.0
20260904080802 81 102 0.0 0.0 0.00 0.14 0.00 92 1010.9
20260904080702 81 102 0.0 0.0 0.00 0.14 0.00 92 1011.0
20260904080603 81 102 0.0 0.0 0.00 0.14 0.00 92 1011.0
20260904080503 81 102 0.0 0.0 0.00 0.14 0.00 92 1011.0
20260904080403 82 102 0.0 0.0 0.00 0.14 0.00 92 1011.0
20260904080302 82 102 0.0 0.0 0.00 0.14 0.00 92 1011.0
20260904080204 82 102 0.0 0.0 0.00 0.14 0.00 92 1011.0
20260904080002 82 102 0.0 0.0 0.00 0.14 0.00 92 1011.0
20260904075904 82 102 0.0 0.0 0.00 0.14 0.00 92 1011.0
20260904075802 82 102 0.0 0.0 0.00 0.14 0.00 91 1010.9
20260904075703 82 102 0.0 0.0 0.00 0.14 0.00 91 1010.9
20260904075603 82 102 0.0 0.0 0.00 0.14 0.00 91 1011.0
20260904075503 82 102 0.0 0.0 0.00 0.14 0.00 91 1010.9
20260904075403 82 102 0.0 0.0 0.00 0.14 0.00 91 1010.9
20260904075306 82 102 0.0 0.0 0.00 0.14 0.00 91 1010.9
20260904075204 82 123 0.0 0.0 0.00 0.14 0.00 91 1010.9
20260904075102 82 123 0.0 0.0 0.00 0.14 0.00 91 1010.9
20260904075003 82 188 0.0 0.0 0.00 0.14 0.00 91 1010.9
20260904074904 82 197 0.0 0.0 0.00 0.14 0.00 91 1010.9
20260904074802 82 199 0.0 2.0 0.00 0.14 0.00 91 1010.9
20260904074702 82 199 0.0 3.0 0.00 0.14 0.00 91 1010.9
20260904074602 82 199 0.0 3.0 0.00 0.14 0.00 91 1011.0
20260904074503 82 199 0.0 3.0 0.00 0.14 0.00 91 1010.9
20260904074402 82 199 0.0 3.0 0.00 0.14 0.00 91 1010.9
20260904074304 82 199 0.0 3.0 0.00 0.14 0.00 91 1010.9
20260904074203 82 199 0.0 3.0 0.00 0.14 0.00 91 1010.9
20260904074102 82 199 0.0 3.0 0.00 0.14 0.00 91 1010.9
20260904074004 82 199 1.0 3.0 0.00 0.14 0.00 91 1010.9
20260904073904 82 199 1.0 3.0 0.00 0.14 0.00 91 1010.9
20260904073804 82 199 1.0 3.0 0.00 0.14 0.00 91 1010.9
20260904073702 82 199 0.0 3.0 0.00 0.14 0.00 91 1010.9
20260904073603 82 199 0.0 3.0 0.00 0.14 0.00 91 1010.9
20260904073503 82 199 0.0 3.0 0.00 0.14 0.00 91 1010.9
20260904073402 82 199 0.0 3.0 0.00 0.14 0.00 91 1010.9
20260904073302 82 199 0.0 3.0 0.00 0.14 0.00 91 1010.9
20260904073203 82 199 1.0 3.0 0.00 0.14 0.00 91 1011.0
20260904073103 82 199 1.0 3.0 0.00 0.14 0.00 91 1010.9
20260904073003 82 199 1.0 3.0 0.00 0.14 0.00 91 1010.9
20260904072902 82 171 0.0 3.0 0.00 0.14 0.00 91 1011.0
20260904072804 82 171 0.0 3.0 0.00 0.14 0.00 91 1011.0
20260904072702 82 171 0.0 3.0 0.00 0.14 0.00 91 1010.9
20260904072603 82 171 0.0 3.0 0.00 0.14 0.00 91 1010.9
20260904072506 82 171 1.0 3.0 0.00 0.14 0.00 91 1011.0
20260904072403 82 171 1.0 3.0 0.00 0.14 0.00 91 1010.9
20260904072306 82 171 1.0 3.0 0.00 0.14 0.00 91 1011.0
20260904072202 82 168 0.0 3.0 0.00 0.14 0.00 91 1010.9
20260904072103 82 168 1.0 3.0 0.00 0.14 0.00 91 1010.9
20260904072002 82 168 1.0 3.0 0.00 0.14 0.00 91 1011.0
20260904071902 82 168 1.0 3.0 0.00 0.14 0.00 91 1011.0
20260904071801 82 168 1.0 2.0 0.00 0.14 0.00 91 1011.0
20260904071703 82 175 0.0 3.0 0.00 0.14 0.00 91 1011.0
20260904071601 82 175 0.0 3.0 0.00 0.14 0.00 91 1011.1
20260904071503 82 175 1.0 4.0 0.00 0.14 0.00 91 1011.0
20260904071402 82 176 1.0 4.0 0.00 0.14 0.00 91 1011.0
20260904071303 82 176 1.0 4.0 0.00 0.14 0.00 91 1011.1
20260904071202 82 176 1.0 4.0 0.00 0.14 0.00 91 1011.1
20260904071102 82 176 0.0 4.0 0.00 0.14 0.00 91 1011.0
20260904071003 82 176 0.0 4.0 0.00 0.14 0.00 91 1011.1
20260904070902 82 176 1.0 4.0 0.00 0.14 0.00 91 1011.1
20260904070803 82 176 2.0 4.0 0.00 0.14 0.00 90 1011.1
20260904070702 82 180 2.0 4.0 0.00 0.14 0.00 91 1011.0
20260904070603 82 183 2.0 4.0 0.00 0.14 0.00 91 1011.1
20260904070502 82 172 2.0 3.0 0.00 0.14 0.00 91 1011.0
20260904070403 82 168 1.0 3.0 0.00 0.14 0.00 91 1011.1
20260904070303 82 171 1.0 3.0 0.00 0.14 0.00 90 1011.1
20260904070204 82 172 2.0 3.0 0.00 0.14 0.00 90 1011.0
20260904070103 82 178 1.0 3.0 0.00 0.14 0.00 90 1011.1
20260904070003 82 175 1.0 3.0 0.00 0.14 0.00 90 1011.1
20260904065902 82 210 1.0 3.0 0.00 0.14 0.00 90 1011.0
20260904065804 82 212 1.0 4.0 0.00 0.14 0.00 90 1011.0
20260904065703 82 213 1.0 5.0 0.00 0.14 0.00 90 1011.1
20260904065602 82 214 1.0 5.0 0.00 0.14 0.00 90 1011.1
20260904065502 82 214 1.0 5.0 0.00 0.14 0.00 90 1011.1
20260904065403 82 214 1.0 5.0 0.00 0.14 0.00 90 1011.0
20260904065306 82 193 1.0 5.0 0.00 0.14 0.00 90 1011.0
20260904065202 82 193 0.0 5.0 0.00 0.14 0.00 90 1011.0
20260904065103 82 193 1.0 5.0 0.00 0.14 0.00 90 1011.0
20260904065004 82 193 2.0 5.0 0.00 0.14 0.00 90 1011.0
20260904064901 82 190 3.0 5.0 0.00 0.14 0.00 90 1011.0
20260904064802 82 210 2.0 5.0 0.00 0.14 0.00 90 1011.0
20260904064704 82 196 1.0 4.0 0.00 0.14 0.00 90 1011.0
20260904064602 82 197 1.0 4.0 0.00 0.14 0.00 90 1010.9
20260904064503 82 197 2.0 4.0 0.00 0.14 0.00 90 1011.0
20260904064403 82 216 2.0 4.0 0.00 0.14 0.00 90 1011.0
20260904064303 82 217 3.0 4.0 0.00 0.14 0.00 90 1011.0
20260904064202 82 189 3.0 6.0 0.00 0.14 0.00 90 1011.0
20260904064102 82 196 3.0 6.0 0.00 0.14 0.00 90 1011.0
20260904064004 82 217 2.0 6.0 0.00 0.14 0.00 90 1011.0
20260904063901 82 193 1.0 6.0 0.00 0.14 0.00 90 1011.0
20260904063803 82 189 2.0 6.0 0.00 0.14 0.00 90 1011.0
20260904063704 82 189 2.0 6.0 0.00 0.14 0.00 90 1011.1
20260904063602 82 189 2.0 6.0 0.00 0.14 0.00 90 1011.1
20260904063504 82 189 2.0 6.0 0.00 0.14 0.00 90 1011.0
20260904063404 82 199 3.0 6.0 0.00 0.14 0.00 90 1011.0
20260904063302 82 213 3.0 6.0 0.00 0.14 0.00 90 1011.0
20260904063201 82 190 3.0 6.0 0.00 0.14 0.00 90 1011.0
20260904063100 82 221 3.0 6.0 0.00 0.14 0.00 90 1010.9
20260904062959 82 220 2.0 4.0 0.00 0.14 0.00 90 1011.0
20260904062856 82 214 2.0 5.0 0.00 0.14 0.00 90 1010.9
20260904062754 82 216 2.0 5.0 0.00 0.14 0.00 90 1011.0
20260904062653 82 216 3.0 5.0 0.00 0.14 0.00 90 1011.0
20260904062551 82 196 3.0 5.0 0.00 0.14 0.00 90 1011.0
20260904062449 82 200 2.0 5.0 0.00 0.14 0.00 90 1011.0
20260904062347 82 204 1.0 5.0 0.00 0.14 0.00 90 1011.0
20260904062247 82 206 2.0 5.0 0.00 0.14 0.00 90 1011.0
20260904062142 82 207 3.0 5.0 0.00 0.14 0.00 90 1011.0
20260904062040 82 193 3.0 5.0 0.00 0.14 0.00 90 1011.0
20260904061940 82 196 3.0 5.0 0.00 0.14 0.00 90 1011.0
20260904061842 82 180 2.0 5.0 0.00 0.14 0.00 90 1011.0
20260904061740 82 186 2.0 5.0 0.00 0.14 0.00 90 1011.0
20260904061639 82 168 3.0 5.0 0.00 0.14 0.00 90 1011.0
20260904061542 82 197 3.0 5.0 0.00 0.14 0.00 90 1011.0
20260904061441 82 192 2.0 5.0 0.00 0.14 0.00 90 1011.1
20260904061341 82 199 2.0 3.0 0.00 0.14 0.00 90 1011.0
20260904061240 82 200 2.0 3.0 0.00 0.14 0.00 90 1011.0
20260904061141 82 202 1.0 3.0 0.00 0.14 0.00 90 1011.0
20260904061040 82 204 2.0 3.0 0.00 0.14 0.00 90 1011.1
20260904060940 82 197 2.0 3.0 0.00 0.14 0.00 90 1011.1
20260904060842 82 180 2.0 4.0 0.00 0.14 0.00 90 1011.1
20260904060740 82 140 0.0 4.0 0.00 0.14 0.00 90 1011.1
20260904060640 82 130 1.0 4.0 0.00 0.14 0.00 90 1011.2
20260904060540 82 130 1.0 4.0 0.00 0.14 0.00 90 1011.2
20260904060442 82 130 1.0 4.0 0.00 0.14 0.00 90 1011.2
20260904060341 82 128 1.0 4.0 0.00 0.14 0.00 90 1011.2
20260904060241 82 125 1.0 4.0 0.00 0.14 0.00 90 1011.2
20260904060141 82 124 1.0 4.0 0.00 0.14 0.00 90 1011.3
20260904060041 82 123 2.0 4.0 0.00 0.14 0.00 90 1011.3
20260904055940 82 118 2.0 4.0 0.00 0.14 0.00 90 1011.3
20260904055840 82 159 3.0 4.0 0.00 0.14 0.00 90 1011.2
20260904055741 82 141 3.0 4.0 0.00 0.14 0.00 90 1011.3
20260904055640 82 141 1.0 4.0 0.00 0.14 0.00 90 1011.3
20260904055540 82 168 1.0 4.0 0.00 0.14 0.00 90 1011.3
20260904055441 82 168 2.0 4.0 0.00 0.14 0.00 90 1011.3
20260904055340 82 125 2.0 4.0 0.00 0.14 0.00 90 1011.3
20260904055241 82 123 2.0 4.0 0.00 0.14 0.00 90 1011.1
20260904055141 82 133 1.0 5.0 0.00 0.14 0.00 90 1011.2
20260904055041 82 130 1.0 5.0 0.00 0.14 0.00 90 1011.2
20260904054940 82 130 1.0 5.0 0.00 0.14 0.00 90 1011.2
20260904054840 82 131 1.0 5.0 0.00 0.14 0.00 90 1011.2
20260904054741 82 130 2.0 5.0 0.00 0.14 0.00 90 1011.3
20260904054640 82 125 2.0 5.0 0.00 0.14 0.00 90 1011.2
20260904054540 82 161 2.0 5.0 0.00 0.14 0.00 90 1011.3
20260904054441 82 125 2.0 5.0 0.00 0.14 0.00 90 1011.3
20260904054340 82 135 3.0 5.0 0.00 0.14 0.00 90 1011.2
20260904054239 82 133 3.0 5.0 0.00 0.14 0.00 90 1011.2
20260904054139 82 152 2.0 5.0 0.00 0.14 0.00 90 1011.3
20260904054041 82 125 2.0 5.0 0.00 0.14 0.00 90 1011.2
20260904053941 82 134 3.0 5.0 0.00 0.14 0.00 90 1011.2
20260904053839 82 138 2.0 5.0 0.00 0.14 0.00 90 1011.2
20260904053741 82 145 2.0 4.0 0.00 0.14 0.00 90 1011.2
20260904053640 82 141 2.0 4.0 0.00 0.14 0.00 90 1011.2
20260904053540 82 154 2.0 4.0 0.00 0.14 0.00 90 1011.1
20260904053439 82 171 2.0 4.0 0.00 0.14 0.00 90 1011.2
20260904053341 82 157 2.0 4.0 0.00 0.14 0.00 90 1011.2
20260904053239 82 127 1.0 4.0 0.00 0.14 0.00 90 1011.1
20260904053139 82 171 1.0 4.0 0.00 0.14 0.00 90 1011.1
20260904053039 82 131 2.0 4.0 0.00 0.14 0.00 90 1011.1
20260904052940 82 133 2.0 5.0 0.00 0.14 0.00 90 1011.1